| time (UTC) | temp F | wind direction | speed MPH | gust MPH | rain 1hr in | rain 24hr in | rain mn in | humidity % | barometer mb |
| 20260502162058 | 77 | 272 | 1.0 | 4.0 | 0.00 | 0.00 | 0.00 | 12 | 920.4 |
| 20260502161953 | 77 | 299 | 0.0 | 4.0 | 0.00 | 0.00 | 0.00 | 12 | 920.4 |
| 20260502161851 | 77 | 235 | 0.0 | 4.0 | 0.00 | 0.00 | 0.00 | 12 | 920.4 |
| 20260502161527 | 76 | 254 | 0.0 | 4.0 | 0.00 | 0.00 | 0.00 | 12 | 920.4 |
| 20260502161425 | 76 | 237 | 0.0 | 3.0 | 0.00 | 0.00 | 0.00 | 13 | 920.3 |
| 20260502161323 | 76 | 277 | 0.0 | 3.0 | 0.00 | 0.00 | 0.00 | 13 | 920.4 |
| 20260502161219 | 76 | 5 | 0.0 | 3.0 | 0.00 | 0.00 | 0.00 | 12 | 920.3 |
| 20260502161117 | 76 | 5 | 0.0 | 3.0 | 0.00 | 0.00 | 0.00 | 12 | 920.3 |
| 20260502161009 | 76 | 319 | 0.0 | 3.0 | 0.00 | 0.00 | 0.00 | 13 | 920.4 |
| 20260502160904 | 76 | 303 | 0.0 | 3.0 | 0.00 | 0.00 | 0.00 | 13 | 920.4 |
| 20260502160540 | 76 | 273 | 0.0 | 2.0 | 0.00 | 0.00 | 0.00 | 13 | 920.3 |
| 20260502160438 | 76 | 279 | 0.0 | 2.0 | 0.00 | 0.00 | 0.00 | 13 | 920.3 |
| 20260502160332 | 76 | 261 | 0.0 | 2.0 | 0.00 | 0.00 | 0.00 | 13 | 920.4 |
| 20260502160229 | 76 | 267 | 0.0 | 2.0 | 0.00 | 0.00 | 0.00 | 12 | 920.4 |
| 20260502152144 | 71 | 171 | 0.0 | 2.0 | 0.00 | 0.00 | 0.00 | 16 | 920.3 |
| 20260502152037 | 71 | 171 | 0.0 | 2.0 | 0.00 | 0.00 | 0.00 | 16 | 920.3 |
| 20260502151451 | 70 | 206 | 0.0 | 2.0 | 0.00 | 0.00 | 0.00 | 16 | 920.2 |
| 20260502151344 | 70 | 206 | 0.0 | 2.0 | 0.00 | 0.00 | 0.00 | 16 | 920.2 |
| 20260502151237 | 70 | 206 | 0.0 | 2.0 | 0.00 | 0.00 | 0.00 | 16 | 920.2 |
| 20260502151134 | 70 | 206 | 0.0 | 2.0 | 0.00 | 0.00 | 0.00 | 16 | 920.2 |
| 20260502151031 | 70 | 184 | 0.0 | 2.0 | 0.00 | 0.00 | 0.00 | 16 | 920.1 |
| 20260502150448 | 69 | 45 | 0.0 | 1.0 | 0.00 | 0.00 | 0.00 | 17 | 920.1 |
| 20260502150341 | 69 | 44 | 0.0 | 0.0 | 0.00 | 0.00 | 0.00 | 17 | 920.1 |
| 20260502150235 | 69 | 44 | 0.0 | 0.0 | 0.00 | 0.00 | 0.00 | 17 | 920.1 |
| 20260502150127 | 69 | 44 | 0.0 | 0.0 | 0.00 | 0.00 | 0.00 | 16 | 920.1 |
| 20260502130731 | 61 | 29 | 1.0 | 5.0 | 0.00 | 0.00 | 0.00 | 18 | 919.2 |
| 20260502130627 | 62 | 30 | 1.0 | 5.0 | 0.00 | 0.00 | 0.00 | 19 | 919.2 |
| 20260502130521 | 62 | 32 | 1.0 | 5.0 | 0.00 | 0.00 | 0.00 | 18 | 919.2 |
| 20260502130414 | 62 | 31 | 1.0 | 5.0 | 0.00 | 0.00 | 0.00 | 18 | 919.2 |
| 20260502123734 | 61 | 15 | 2.0 | 4.0 | 0.00 | 0.00 | 0.00 | 18 | 919.0 |
| 20260502123631 | 61 | 21 | 2.0 | 4.0 | 0.00 | 0.00 | 0.00 | 18 | 919.0 |
| 20260502123525 | 61 | 5 | 2.0 | 4.0 | 0.00 | 0.00 | 0.00 | 18 | 919.0 |
| 20260502123424 | 61 | 40 | 2.0 | 4.0 | 0.00 | 0.00 | 0.00 | 18 | 919.0 |
| 20260502123058 | 61 | 38 | 1.0 | 3.0 | 0.00 | 0.00 | 0.00 | 18 | 918.9 |
| 20260502122953 | 61 | 16 | 1.0 | 3.0 | 0.00 | 0.00 | 0.00 | 18 | 918.9 |
| 20260502122848 | 61 | 9 | 1.0 | 3.0 | 0.00 | 0.00 | 0.00 | 18 | 918.9 |
| 20260502122745 | 61 | 24 | 1.0 | 3.0 | 0.00 | 0.00 | 0.00 | 18 | 918.9 |
| 20260502122642 | 61 | 26 | 1.0 | 3.0 | 0.00 | 0.00 | 0.00 | 18 | 918.9 |
| 20260502122538 | 61 | 28 | 1.0 | 3.0 | 0.00 | 0.00 | 0.00 | 18 | 918.9 |
| 20260502122432 | 61 | 19 | 0.0 | 3.0 | 0.00 | 0.00 | 0.00 | 18 | 918.9 |
| 20260502122106 | 61 | 11 | 0.0 | 2.0 | 0.00 | 0.00 | 0.00 | 18 | 918.9 |
| 20260502122002 | 61 | 9 | 1.0 | 2.0 | 0.00 | 0.00 | 0.00 | 18 | 918.8 |
| 20260502121858 | 61 | 17 | 1.0 | 2.0 | 0.00 | 0.00 | 0.00 | 18 | 918.9 |
| 20260502121750 | 60 | 17 | 1.0 | 2.0 | 0.00 | 0.00 | 0.00 | 18 | 918.8 |
| 20260502121647 | 60 | 19 | 1.0 | 2.0 | 0.00 | 0.00 | 0.00 | 18 | 918.8 |
| 20260502121543 | 60 | 355 | 1.0 | 2.0 | 0.00 | 0.00 | 0.00 | 18 | 918.9 |
| 20260502121436 | 60 | 355 | 1.0 | 2.0 | 0.00 | 0.00 | 0.00 | 18 | 918.8 |
| 20260502121106 | 60 | 14 | 1.0 | 2.0 | 0.00 | 0.00 | 0.00 | 18 | 918.8 |
| 20260502121005 | 60 | 19 | 0.0 | 2.0 | 0.00 | 0.00 | 0.00 | 18 | 918.8 |
| 20260502120859 | 60 | 5 | 0.0 | 2.0 | 0.00 | 0.00 | 0.00 | 18 | 918.8 |
| 20260502120755 | 60 | 13 | 0.0 | 2.0 | 0.00 | 0.00 | 0.00 | 18 | 918.8 |
| 20260502120649 | 60 | 13 | 0.0 | 2.0 | 0.00 | 0.00 | 0.00 | 18 | 918.8 |
| 20260502120542 | 60 | 12 | 0.0 | 2.0 | 0.00 | 0.00 | 0.00 | 18 | 918.8 |
| 20260502120436 | 60 | 9 | 0.0 | 2.0 | 0.00 | 0.00 | 0.00 | 18 | 918.9 |
| 20260502120332 | 60 | 9 | 0.0 | 2.0 | 0.00 | 0.00 | 0.00 | 18 | 918.8 |
| 20260502120230 | 60 | 9 | 0.0 | 2.0 | 0.00 | 0.00 | 0.00 | 18 | 918.8 |
| 20260502120124 | 60 | 9 | 0.0 | 2.0 | 0.00 | 0.00 | 0.00 | 18 | 918.8 |
| 20260502115913 | 60 | 9 | 0.0 | 2.0 | 0.00 | 0.00 | 0.00 | 18 | 918.8 |
| 20260502115550 | 61 | 342 | 0.0 | 1.0 | 0.00 | 0.00 | 0.00 | 18 | 918.7 |
| 20260502115224 | 61 | 342 | 0.0 | 1.0 | 0.00 | 0.00 | 0.00 | 18 | 918.7 |
| 20260502115119 | 61 | 338 | 0.0 | 1.0 | 0.00 | 0.00 | 0.00 | 18 | 918.8 |
| 20260502115014 | 61 | 338 | 0.0 | 1.0 | 0.00 | 0.00 | 0.00 | 18 | 918.8 |
| 20260502114908 | 61 | 338 | 0.0 | 1.0 | 0.00 | 0.00 | 0.00 | 18 | 918.7 |
| 20260502114806 | 61 | 338 | 0.0 | 1.0 | 0.00 | 0.00 | 0.00 | 18 | 918.7 |
| 20260502114434 | 61 | 338 | 0.0 | 0.0 | 0.00 | 0.00 | 0.00 | 18 | 918.7 |
| 20260502114002 | 61 | 338 | 0.0 | 2.0 | 0.00 | 0.00 | 0.00 | 18 | 918.7 |
| 20260502113857 | 61 | 338 | 0.0 | 2.0 | 0.00 | 0.00 | 0.00 | 18 | 918.7 |
| 20260502113752 | 61 | 340 | 0.0 | 2.0 | 0.00 | 0.00 | 0.00 | 18 | 918.7 |
| 20260502113650 | 61 | 334 | 0.0 | 2.0 | 0.00 | 0.00 | 0.00 | 18 | 918.8 |
| 20260502113544 | 61 | 335 | 0.0 | 2.0 | 0.00 | 0.00 | 0.00 | 18 | 918.8 |
| 20260502113439 | 61 | 332 | 0.0 | 2.0 | 0.00 | 0.00 | 0.00 | 18 | 918.8 |
| 20260502113337 | 62 | 327 | 0.0 | 2.0 | 0.00 | 0.00 | 0.00 | 18 | 918.8 |
| 20260502113232 | 62 | 317 | 0.0 | 1.0 | 0.00 | 0.00 | 0.00 | 18 | 918.8 |
| 20260502113127 | 62 | 317 | 0.0 | 1.0 | 0.00 | 0.00 | 0.00 | 18 | 918.8 |
| 20260502113019 | 62 | 316 | 0.0 | 1.0 | 0.00 | 0.00 | 0.00 | 18 | 918.8 |
| 20260502112914 | 62 | 316 | 0.0 | 1.0 | 0.00 | 0.00 | 0.00 | 18 | 918.8 |
| 20260502112810 | 62 | 304 | 0.0 | 1.0 | 0.00 | 0.00 | 0.00 | 18 | 918.8 |
| 20260502112707 | 62 | 303 | 0.0 | 1.0 | 0.00 | 0.00 | 0.00 | 18 | 918.8 |
| 20260502112602 | 62 | 302 | 0.0 | 1.0 | 0.00 | 0.00 | 0.00 | 18 | 918.7 |
| 20260502112501 | 62 | 302 | 0.0 | 1.0 | 0.00 | 0.00 | 0.00 | 17 | 918.7 |
| 20260502112354 | 62 | 302 | 0.0 | 1.0 | 0.00 | 0.00 | 0.00 | 17 | 918.7 |
| 20260502112247 | 62 | 302 | 0.0 | 1.0 | 0.00 | 0.00 | 0.00 | 17 | 918.7 |
| 20260502112140 | 62 | 282 | 0.0 | 0.0 | 0.00 | 0.00 | 0.00 | 18 | 918.7 |
| 20260502111813 | 62 | 274 | 0.0 | 2.0 | 0.00 | 0.00 | 0.00 | 18 | 918.7 |
| 20260502111707 | 62 | 290 | 0.0 | 2.0 | 0.00 | 0.00 | 0.00 | 18 | 918.7 |
| 20260502111603 | 62 | 274 | 0.0 | 2.0 | 0.00 | 0.00 | 0.00 | 18 | 918.7 |
| 20260502111459 | 62 | 270 | 0.0 | 2.0 | 0.00 | 0.00 | 0.00 | 17 | 918.7 |
| 20260502111357 | 62 | 292 | 0.0 | 2.0 | 0.00 | 0.00 | 0.00 | 17 | 918.7 |
| 20260502111250 | 62 | 276 | 0.0 | 2.0 | 0.00 | 0.00 | 0.00 | 17 | 918.7 |
| 20260502111147 | 62 | 298 | 0.0 | 2.0 | 0.00 | 0.00 | 0.00 | 17 | 918.7 |
| 20260502110822 | 63 | 283 | 0.0 | 2.0 | 0.00 | 0.00 | 0.00 | 17 | 918.7 |
| 20260502110459 | 63 | 284 | 0.0 | 1.0 | 0.00 | 0.00 | 0.00 | 17 | 918.7 |
| 20260502110355 | 63 | 284 | 0.0 | 1.0 | 0.00 | 0.00 | 0.00 | 17 | 918.7 |
| 20260502110253 | 63 | 304 | 0.0 | 1.0 | 0.00 | 0.00 | 0.00 | 17 | 918.7 |
| 20260502110151 | 63 | 304 | 0.0 | 1.0 | 0.00 | 0.00 | 0.00 | 17 | 918.7 |
| 20260502110045 | 63 | 315 | 0.0 | 1.0 | 0.00 | 0.00 | 0.00 | 17 | 918.7 |
| 20260502105726 | 63 | 10 | 0.0 | 1.0 | 0.00 | 0.00 | 0.00 | 17 | 918.7 |
| 20260502105620 | 63 | 17 | 0.0 | 1.0 | 0.00 | 0.00 | 0.00 | 17 | 918.6 |
| 20260502105516 | 63 | 17 | 0.0 | 0.0 | 0.00 | 0.00 | 0.00 | 17 | 918.7 |
| 20260502105413 | 63 | 17 | 0.0 | 2.0 | 0.00 | 0.00 | 0.00 | 17 | 918.6 |
| 20260502105308 | 63 | 17 | 0.0 | 2.0 | 0.00 | 0.00 | 0.00 | 17 | 918.7 |
| 20260502105206 | 63 | 17 | 0.0 | 2.0 | 0.00 | 0.00 | 0.00 | 17 | 918.7 |
| 20260502105059 | 63 | 5 | 0.0 | 2.0 | 0.00 | 0.00 | 0.00 | 17 | 918.6 |
| 20260502104954 | 63 | 5 | 0.0 | 2.0 | 0.00 | 0.00 | 0.00 | 17 | 918.6 |
| 20260502104849 | 63 | 275 | 0.0 | 2.0 | 0.00 | 0.00 | 0.00 | 17 | 918.7 |
| 20260502104743 | 63 | 254 | 0.0 | 2.0 | 0.00 | 0.00 | 0.00 | 17 | 918.6 |
| 20260502104641 | 63 | 244 | 0.0 | 2.0 | 0.00 | 0.00 | 0.00 | 17 | 918.7 |
| 20260502104535 | 63 | 244 | 0.0 | 2.0 | 0.00 | 0.00 | 0.00 | 17 | 918.6 |
| 20260502104428 | 63 | 244 | 0.0 | 2.0 | 0.00 | 0.00 | 0.00 | 17 | 918.7 |
| 20260502104322 | 63 | 244 | 0.0 | 2.0 | 0.00 | 0.00 | 0.00 | 17 | 918.6 |
| 20260502104217 | 63 | 242 | 0.0 | 2.0 | 0.00 | 0.00 | 0.00 | 17 | 918.7 |
| 20260502104109 | 63 | 242 | 0.0 | 2.0 | 0.00 | 0.00 | 0.00 | 17 | 918.6 |
| 20260502104002 | 63 | 307 | 0.0 | 1.0 | 0.00 | 0.00 | 0.00 | 17 | 918.6 |
| 20260502103900 | 63 | 54 | 0.0 | 0.0 | 0.00 | 0.00 | 0.00 | 17 | 918.6 |
| 20260502103532 | 63 | 54 | 0.0 | 2.0 | 0.00 | 0.00 | 0.00 | 16 | 918.6 |
| 20260502103428 | 63 | 54 | 0.0 | 2.0 | 0.00 | 0.00 | 0.00 | 16 | 918.6 |
| 20260502103325 | 63 | 54 | 0.0 | 2.0 | 0.00 | 0.00 | 0.00 | 16 | 918.6 |
| 20260502103219 | 63 | 61 | 0.0 | 2.0 | 0.00 | 0.00 | 0.00 | 16 | 918.6 |
| 20260502103117 | 63 | 61 | 0.0 | 2.0 | 0.00 | 0.00 | 0.00 | 16 | 918.6 |
| 20260502103010 | 63 | 40 | 0.0 | 2.0 | 0.00 | 0.00 | 0.00 | 16 | 918.6 |
| 20260502102908 | 64 | 40 | 0.0 | 2.0 | 0.00 | 0.00 | 0.00 | 16 | 918.6 |
| 20260502102804 | 64 | 34 | 0.0 | 2.0 | 0.00 | 0.00 | 0.00 | 16 | 918.6 |
| 20260502102700 | 64 | 74 | 0.0 | 2.0 | 0.00 | 0.00 | 0.00 | 16 | 918.6 |
| 20260502102556 | 64 | 71 | 0.0 | 2.0 | 0.00 | 0.00 | 0.00 | 16 | 918.6 |
| 20260502102229 | 64 | 39 | 0.0 | 2.0 | 0.00 | 0.00 | 0.00 | 16 | 918.6 |
| 20260502101902 | 64 | 329 | 0.0 | 1.0 | 0.00 | 0.00 | 0.00 | 16 | 918.6 |
| 20260502101755 | 65 | 328 | 0.0 | 0.0 | 0.00 | 0.00 | 0.00 | 17 | 918.6 |
| 20260502101650 | 65 | 328 | 0.0 | 0.0 | 0.00 | 0.00 | 0.00 | 16 | 918.6 |
| 20260502101546 | 65 | 328 | 0.0 | 0.0 | 0.00 | 0.00 | 0.00 | 16 | 918.5 |
| 20260502101444 | 65 | 328 | 0.0 | 0.0 | 0.00 | 0.00 | 0.00 | 16 | 918.5 |
| 20260502101339 | 65 | 328 | 0.0 | 0.0 | 0.00 | 0.00 | 0.00 | 16 | 918.5 |
| 20260502101233 | 65 | 328 | 0.0 | 1.0 | 0.00 | 0.00 | 0.00 | 15 | 918.5 |
| 20260502101127 | 65 | 328 | 0.0 | 1.0 | 0.00 | 0.00 | 0.00 | 15 | 918.6 |
| 20260502101024 | 65 | 327 | 0.0 | 1.0 | 0.00 | 0.00 | 0.00 | 15 | 918.6 |
| 20260502100656 | 65 | 223 | 0.0 | 0.0 | 0.00 | 0.00 | 0.00 | 15 | 918.6 |
| 20260502100554 | 65 | 223 | 0.0 | 0.0 | 0.00 | 0.00 | 0.00 | 15 | 918.6 |
| 20260502100449 | 65 | 223 | 0.0 | 0.0 | 0.00 | 0.00 | 0.00 | 15 | 918.6 |
| 20260502100347 | 65 | 223 | 0.0 | 0.0 | 0.00 | 0.00 | 0.00 | 15 | 918.5 |
| 20260502100241 | 65 | 223 | 0.0 | 0.0 | 0.00 | 0.00 | 0.00 | 15 | 918.6 |
| 20260502100137 | 65 | 223 | 0.0 | 0.0 | 0.00 | 0.00 | 0.00 | 15 | 918.6 |
| 20260502091534 | 63 | 221 | 1.0 | 6.0 | 0.00 | 0.00 | 0.00 | 17 | 918.6 |
| 20260502091427 | 62 | 221 | 1.0 | 6.0 | 0.00 | 0.00 | 0.00 | 17 | 918.6 |
| 20260502091322 | 62 | 241 | 0.0 | 3.0 | 0.00 | 0.00 | 0.00 | 18 | 918.7 |
| 20260502090959 | 62 | 267 | 0.0 | 1.0 | 0.00 | 0.00 | 0.00 | 18 | 918.6 |
| 20260502090854 | 62 | 288 | 0.0 | 1.0 | 0.00 | 0.00 | 0.00 | 18 | 918.6 |
| 20260502090752 | 62 | 288 | 0.0 | 1.0 | 0.00 | 0.00 | 0.00 | 18 | 918.7 |
| 20260502090646 | 62 | 297 | 0.0 | 1.0 | 0.00 | 0.00 | 0.00 | 18 | 918.6 |
| 20260502090541 | 62 | 319 | 0.0 | 1.0 | 0.00 | 0.00 | 0.00 | 18 | 918.6 |
| 20260502090434 | 62 | 325 | 0.0 | 0.0 | 0.00 | 0.00 | 0.00 | 18 | 918.6 |
| 20260502090332 | 62 | 325 | 0.0 | 0.0 | 0.00 | 0.00 | 0.00 | 18 | 918.6 |
| 20260502090226 | 62 | 325 | 0.0 | 3.0 | 0.00 | 0.00 | 0.00 | 18 | 918.7 |
| 20260502090118 | 62 | 325 | 0.0 | 3.0 | 0.00 | 0.00 | 0.00 | 18 | 918.7 |
| 20260502071440 | 68 | 267 | 0.0 | 0.0 | 0.00 | 0.00 | 0.00 | 16 | 918.7 |
| 20260502071335 | 68 | 267 | 0.0 | 0.0 | 0.00 | 0.00 | 0.00 | 16 | 918.6 |
| 20260502071230 | 68 | 267 | 0.0 | 0.0 | 0.00 | 0.00 | 0.00 | 16 | 918.6 |
| 20260502071123 | 68 | 267 | 0.0 | 0.0 | 0.00 | 0.00 | 0.00 | 16 | 918.6 |
| 20260502071018 | 68 | 267 | 0.0 | 0.0 | 0.00 | 0.00 | 0.00 | 16 | 918.6 |
| 20260502070914 | 68 | 267 | 0.0 | 0.0 | 0.00 | 0.00 | 0.00 | 16 | 918.6 |
| 20260502070806 | 68 | 267 | 0.0 | 5.0 | 0.00 | 0.00 | 0.00 | 16 | 918.6 |
| 20260502070701 | 68 | 267 | 1.0 | 5.0 | 0.00 | 0.00 | 0.00 | 16 | 918.6 |
| 20260502070556 | 68 | 267 | 1.0 | 5.0 | 0.00 | 0.00 | 0.00 | 16 | 918.6 |
| 20260502070450 | 68 | 292 | 1.0 | 5.0 | 0.00 | 0.00 | 0.00 | 16 | 918.6 |
| 20260502070346 | 68 | 268 | 1.0 | 5.0 | 0.00 | 0.00 | 0.00 | 16 | 918.5 |
| 20260502070240 | 68 | 288 | 1.0 | 5.0 | 0.00 | 0.00 | 0.00 | 16 | 918.5 |
| 20260502070133 | 68 | 280 | 1.0 | 5.0 | 0.00 | 0.00 | 0.00 | 16 | 918.6 |
| 20260502065809 | 68 | 198 | 1.0 | 5.0 | 0.00 | 0.00 | 0.00 | 16 | 918.6 |
| 20260502065702 | 68 | 199 | 1.0 | 5.0 | 0.00 | 0.00 | 0.00 | 16 | 918.5 |
| 20260502065559 | 68 | 223 | 1.0 | 5.0 | 0.00 | 0.00 | 0.00 | 16 | 918.5 |
| 20260502065452 | 68 | 227 | 1.0 | 5.0 | 0.00 | 0.00 | 0.00 | 15 | 918.6 |
| 20260502065122 | 69 | 30 | 1.0 | 5.0 | 0.00 | 0.00 | 0.00 | 15 | 918.5 |
| 20260502065016 | 69 | 27 | 1.0 | 5.0 | 0.00 | 0.00 | 0.00 | 15 | 918.6 |
| 20260502064649 | 69 | 213 | 1.0 | 4.0 | 0.00 | 0.00 | 0.00 | 15 | 918.5 |
| 20260502064540 | 69 | 215 | 1.0 | 4.0 | 0.00 | 0.00 | 0.00 | 15 | 918.4 |
| 20260502064437 | 69 | 225 | 0.0 | 3.0 | 0.00 | 0.00 | 0.00 | 15 | 918.5 |
| 20260502064330 | 70 | 219 | 0.0 | 2.0 | 0.00 | 0.00 | 0.00 | 15 | 918.5 |
| 20260502064226 | 70 | 219 | 0.0 | 2.0 | 0.00 | 0.00 | 0.00 | 15 | 918.6 |
| 20260502064123 | 70 | 218 | 0.0 | 2.0 | 0.00 | 0.00 | 0.00 | 15 | 918.5 |
| 20260502064016 | 70 | 74 | 0.0 | 2.0 | 0.00 | 0.00 | 0.00 | 15 | 918.6 |
| 20260502063913 | 70 | 74 | 0.0 | 2.0 | 0.00 | 0.00 | 0.00 | 15 | 918.6 |
| 20260502063806 | 70 | 74 | 0.0 | 2.0 | 0.00 | 0.00 | 0.00 | 15 | 918.6 |
| 20260502063702 | 70 | 75 | 0.0 | 7.0 | 0.00 | 0.00 | 0.00 | 15 | 918.5 |
| 20260502063557 | 70 | 90 | 0.0 | 7.0 | 0.00 | 0.00 | 0.00 | 15 | 918.5 |
| 20260502063455 | 70 | 91 | 0.0 | 7.0 | 0.00 | 0.00 | 0.00 | 15 | 918.5 |
| 20260502063347 | 70 | 209 | 0.0 | 7.0 | 0.00 | 0.00 | 0.00 | 15 | 918.5 |
| 20260502063242 | 71 | 209 | 1.0 | 7.0 | 0.00 | 0.00 | 0.00 | 15 | 918.5 |
| 20260502063137 | 71 | 209 | 1.0 | 7.0 | 0.00 | 0.00 | 0.00 | 15 | 918.5 |
| 20260502062555 | 71 | 215 | 2.0 | 7.0 | 0.00 | 0.00 | 0.00 | 14 | 918.4 |
| 20260502062448 | 71 | 215 | 2.0 | 7.0 | 0.00 | 0.00 | 0.00 | 14 | 918.4 |
| 20260502062345 | 71 | 214 | 2.0 | 7.0 | 0.00 | 0.00 | 0.00 | 14 | 918.4 |
| 20260502062242 | 71 | 229 | 1.0 | 7.0 | 0.00 | 0.00 | 0.00 | 14 | 918.3 |
| 20260502062137 | 71 | 223 | 1.0 | 7.0 | 0.00 | 0.00 | 0.00 | 14 | 918.4 |
| 20260502062033 | 71 | 214 | 1.0 | 7.0 | 0.00 | 0.00 | 0.00 | 14 | 918.3 |
| 20260502061926 | 71 | 217 | 1.0 | 7.0 | 0.00 | 0.00 | 0.00 | 14 | 918.3 |
| 20260502061821 | 71 | 232 | 1.0 | 7.0 | 0.00 | 0.00 | 0.00 | 14 | 918.4 |
| 20260502061715 | 71 | 225 | 1.0 | 7.0 | 0.00 | 0.00 | 0.00 | 14 | 918.3 |
| 20260502061609 | 71 | 173 | 1.0 | 6.0 | 0.00 | 0.00 | 0.00 | 14 | 918.3 |
| 20260502061507 | 71 | 202 | 1.0 | 6.0 | 0.00 | 0.00 | 0.00 | 14 | 918.3 |
| 20260502061403 | 71 | 202 | 1.0 | 6.0 | 0.00 | 0.00 | 0.00 | 14 | 918.3 |
| 20260502061257 | 71 | 223 | 2.0 | 6.0 | 0.00 | 0.00 | 0.00 | 14 | 918.3 |
| 20260502061151 | 71 | 202 | 2.0 | 6.0 | 0.00 | 0.00 | 0.00 | 13 | 918.3 |
| 20260502061048 | 71 | 190 | 2.0 | 6.0 | 0.00 | 0.00 | 0.00 | 13 | 918.2 |
| 20260502060943 | 71 | 182 | 1.0 | 6.0 | 0.00 | 0.00 | 0.00 | 13 | 918.2 |
| 20260502060838 | 71 | 161 | 1.0 | 4.0 | 0.00 | 0.00 | 0.00 | 13 | 918.3 |
| 20260502060733 | 71 | 186 | 1.0 | 7.0 | 0.00 | 0.00 | 0.00 | 14 | 918.3 |
| 20260502060626 | 71 | 171 | 1.0 | 7.0 | 0.00 | 0.00 | 0.00 | 14 | 918.3 |
| 20260502060522 | 71 | 187 | 1.0 | 7.0 | 0.00 | 0.00 | 0.00 | 14 | 918.3 |
| 20260502060419 | 72 | 200 | 1.0 | 7.0 | 0.00 | 0.00 | 0.00 | 14 | 918.3 |
| 20260502060315 | 72 | 207 | 1.0 | 7.0 | 0.00 | 0.00 | 0.00 | 14 | 918.3 |
| 20260502060213 | 72 | 202 | 1.0 | 7.0 | 0.00 | 0.00 | 0.00 | 14 | 918.3 |
| 20260502060109 | 72 | 202 | 1.0 | 7.0 | 0.00 | 0.00 | 0.00 | 14 | 918.3 |
| 20260502060006 | 72 | 201 | 2.0 | 7.0 | 0.00 | 0.00 | 0.00 | 14 | 918.3 |
| 20260502055903 | 72 | 201 | 2.0 | 7.0 | 0.00 | 0.00 | 0.00 | 14 | 918.3 |
| 20260502055756 | 72 | 201 | 2.0 | 7.0 | 0.00 | 0.00 | 0.00 | 14 | 918.3 |
| 20260502055655 | 72 | 201 | 2.0 | 7.0 | 0.00 | 0.00 | 0.00 | 14 | 918.3 |
| 20260502055108 | 73 | 172 | 2.0 | 7.0 | 0.00 | 0.00 | 0.00 | 14 | 918.3 |
| 20260502054746 | 73 | 186 | 1.0 | 5.0 | 0.00 | 0.00 | 0.00 | 13 | 918.3 |
| 20260502054643 | 73 | 188 | 1.0 | 5.0 | 0.00 | 0.00 | 0.00 | 14 | 918.3 |
| 20260502054539 | 73 | 181 | 1.0 | 5.0 | 0.00 | 0.00 | 0.00 | 13 | 918.3 |
| 20260502054436 | 73 | 201 | 0.0 | 5.0 | 0.00 | 0.00 | 0.00 | 13 | 918.3 |
| 20260502054331 | 73 | 158 | 0.0 | 4.0 | 0.00 | 0.00 | 0.00 | 13 | 918.3 |
| 20260502054006 | 74 | 53 | 1.0 | 9.0 | 0.00 | 0.00 | 0.00 | 12 | 918.2 |
| 20260502053900 | 74 | 46 | 1.0 | 9.0 | 0.00 | 0.00 | 0.00 | 12 | 918.3 |
| 20260502053753 | 74 | 34 | 1.0 | 9.0 | 0.00 | 0.00 | 0.00 | 12 | 918.2 |
| 20260502053646 | 74 | 40 | 1.0 | 9.0 | 0.00 | 0.00 | 0.00 | 12 | 918.2 |
| 20260502053544 | 74 | 107 | 1.0 | 9.0 | 0.00 | 0.00 | 0.00 | 12 | 918.2 |
| 20260502053436 | 74 | 157 | 1.0 | 9.0 | 0.00 | 0.00 | 0.00 | 13 | 918.2 |
| 20260502053331 | 74 | 232 | 1.0 | 9.0 | 0.00 | 0.00 | 0.00 | 12 | 918.3 |
| 20260502053224 | 74 | 259 | 2.0 | 9.0 | 0.00 | 0.00 | 0.00 | 12 | 918.2 |
| 20260502053121 | 74 | 317 | 2.0 | 13.0 | 0.00 | 0.00 | 0.00 | 12 | 918.2 |
| 20260502053017 | 74 | 334 | 2.0 | 13.0 | 0.00 | 0.00 | 0.00 | 12 | 918.2 |
| 20260502052911 | 74 | 17 | 2.0 | 13.0 | 0.00 | 0.00 | 0.00 | 12 | 918.2 |
| 20260502052552 | 74 | 182 | 3.0 | 13.0 | 0.00 | 0.00 | 0.00 | 12 | 918.2 |
| 20260502052445 | 74 | 107 | 4.0 | 13.0 | 0.00 | 0.00 | 0.00 | 12 | 918.2 |
| 20260502052342 | 74 | 57 | 5.0 | 13.0 | 0.00 | 0.00 | 0.00 | 12 | 918.2 |
| 20260502052234 | 74 | 36 | 5.0 | 13.0 | 0.00 | 0.00 | 0.00 | 12 | 918.2 |
| 20260502051907 | 74 | 42 | 6.0 | 15.0 | 0.00 | 0.00 | 0.00 | 12 | 918.1 |
| 20260502051803 | 74 | 56 | 6.0 | 15.0 | 0.00 | 0.00 | 0.00 | 12 | 918.1 |
| 20260502051439 | 74 | 22 | 7.0 | 15.0 | 0.00 | 0.00 | 0.00 | 12 | 918.1 |
| 20260502051332 | 74 | 49 | 7.0 | 15.0 | 0.00 | 0.00 | 0.00 | 12 | 918.1 |
| 20260502051226 | 74 | 50 | 7.0 | 15.0 | 0.00 | 0.00 | 0.00 | 12 | 918.1 |
| 20260502050905 | 74 | 34 | 7.0 | 15.0 | 0.00 | 0.00 | 0.00 | 12 | 918.1 |
| 20260502050758 | 74 | 17 | 7.0 | 15.0 | 0.00 | 0.00 | 0.00 | 12 | 918.1 |
| 20260502050653 | 74 | 40 | 7.0 | 15.0 | 0.00 | 0.00 | 0.00 | 12 | 918.1 |
| 20260502050330 | 74 | 22 | 8.0 | 15.0 | 0.00 | 0.00 | 0.00 | 12 | 917.9 |
| 20260502050223 | 74 | 48 | 8.0 | 15.0 | 0.00 | 0.00 | 0.00 | 12 | 917.9 |
| 20260502050117 | 74 | 16 | 8.0 | 14.0 | 0.00 | 0.00 | 0.00 | 12 | 917.9 |
| 20260502050011 | 74 | 13 | 8.0 | 14.0 | 0.00 | 0.00 | 0.00 | 12 | 917.9 |
| 20260502045906 | 74 | 18 | 8.0 | 14.0 | 0.00 | 0.00 | 0.00 | 12 | 918.0 |
| 20260502045801 | 74 | 16 | 8.0 | 14.0 | 0.00 | 0.00 | 0.00 | 12 | 917.9 |
| 20260502045659 | 74 | 39 | 7.0 | 14.0 | 0.00 | 0.00 | 0.00 | 12 | 917.9 |
| 20260502045555 | 74 | 36 | 7.0 | 13.0 | 0.00 | 0.00 | 0.00 | 12 | 917.9 |
| 20260502045010 | 74 | 25 | 6.0 | 13.0 | 0.00 | 0.00 | 0.00 | 12 | 917.9 |
| 20260502044903 | 74 | 17 | 7.0 | 13.0 | 0.00 | 0.00 | 0.00 | 12 | 917.9 |
| 20260502044758 | 74 | 34 | 7.0 | 13.0 | 0.00 | 0.00 | 0.00 | 12 | 917.9 |
| 20260502044653 | 75 | 0 | 7.0 | 13.0 | 0.00 | 0.00 | 0.00 | 12 | 917.9 |
| 20260502044549 | 75 | 10 | 7.0 | 13.0 | 0.00 | 0.00 | 0.00 | 12 | 917.9 |
| 20260502044221 | 75 | 21 | 7.0 | 13.0 | 0.00 | 0.00 | 0.00 | 12 | 917.8 |
| 20260502044115 | 75 | 48 | 7.0 | 13.0 | 0.00 | 0.00 | 0.00 | 12 | 917.9 |
| 20260502044009 | 75 | 31 | 6.0 | 13.0 | 0.00 | 0.00 | 0.00 | 12 | 917.9 |
| 20260502043905 | 74 | 34 | 6.0 | 13.0 | 0.00 | 0.00 | 0.00 | 12 | 917.8 |
| 20260502043545 | 74 | 49 | 5.0 | 13.0 | 0.00 | 0.00 | 0.00 | 12 | 917.7 |
| 20260502043441 | 74 | 30 | 5.0 | 13.0 | 0.00 | 0.00 | 0.00 | 13 | 917.8 |
| 20260502042853 | 75 | 5 | 7.0 | 13.0 | 0.00 | 0.00 | 0.00 | 13 | 917.7 |
| 20260502042746 | 75 | 31 | 6.0 | 13.0 | 0.00 | 0.00 | 0.00 | 13 | 917.6 |
| 20260502042639 | 75 | 5 | 6.0 | 13.0 | 0.00 | 0.00 | 0.00 | 13 | 917.6 |
| 20260502042532 | 75 | 34 | 6.0 | 13.0 | 0.00 | 0.00 | 0.00 | 13 | 917.6 |
| 20260502042425 | 75 | 40 | 6.0 | 11.0 | 0.00 | 0.00 | 0.00 | 13 | 917.6 |
| 20260502042321 | 75 | 0 | 6.0 | 11.0 | 0.00 | 0.00 | 0.00 | 13 | 917.7 |
| 20260502041958 | 75 | 26 | 5.0 | 11.0 | 0.00 | 0.00 | 0.00 | 13 | 917.6 |
| 20260502041854 | 75 | 22 | 5.0 | 11.0 | 0.00 | 0.00 | 0.00 | 13 | 917.6 |
| 20260502041747 | 75 | 45 | 5.0 | 11.0 | 0.00 | 0.00 | 0.00 | 13 | 917.6 |
| 20260502041420 | 75 | 23 | 5.0 | 11.0 | 0.00 | 0.00 | 0.00 | 13 | 917.5 |
| 20260502041315 | 75 | 66 | 5.0 | 11.0 | 0.00 | 0.00 | 0.00 | 13 | 917.5 |
| 20260502041207 | 75 | 47 | 5.0 | 11.0 | 0.00 | 0.00 | 0.00 | 12 | 917.5 |
| 20260502041102 | 75 | 23 | 5.0 | 11.0 | 0.00 | 0.00 | 0.00 | 13 | 917.5 |
| 20260502040959 | 75 | 0 | 6.0 | 11.0 | 0.00 | 0.00 | 0.00 | 13 | 917.5 |
| 20260502040852 | 75 | 32 | 6.0 | 11.0 | 0.00 | 0.00 | 0.00 | 13 | 917.5 |
| 20260502040045 | 75 | 53 | 6.0 | 12.0 | 0.00 | 0.00 | 0.00 | 12 | 917.4 |
| 20260502035940 | 75 | 66 | 6.0 | 12.0 | 0.00 | 0.00 | 0.00 | 12 | 917.5 |
| 20260502035834 | 76 | 5 | 6.0 | 12.0 | 0.00 | 0.00 | 0.00 | 12 | 917.4 |
| 20260502035729 | 76 | 5 | 6.0 | 12.0 | 0.00 | 0.00 | 0.00 | 12 | 917.4 |
| 20260502035625 | 76 | 29 | 6.0 | 12.0 | 0.00 | 0.00 | 0.00 | 12 | 917.4 |
| 20260502035306 | 76 | 31 | 6.0 | 12.0 | 0.00 | 0.00 | 0.00 | 12 | 917.4 |
| 20260502034724 | 76 | 0 | 5.0 | 12.0 | 0.00 | 0.00 | 0.00 | 12 | 917.3 |
| 20260502034617 | 76 | 17 | 5.0 | 12.0 | 0.00 | 0.00 | 0.00 | 12 | 917.3 |
| 20260502034509 | 76 | 42 | 5.0 | 12.0 | 0.00 | 0.00 | 0.00 | 12 | 917.3 |
| 20260502034149 | 76 | 49 | 4.0 | 10.0 | 0.00 | 0.00 | 0.00 | 12 | 917.1 |
| 20260502034046 | 76 | 5 | 4.0 | 10.0 | 0.00 | 0.00 | 0.00 | 12 | 917.1 |
| 20260502033944 | 76 | 51 | 4.0 | 10.0 | 0.00 | 0.00 | 0.00 | 12 | 917.1 |
| 20260502033841 | 76 | 344 | 4.0 | 10.0 | 0.00 | 0.00 | 0.00 | 12 | 917.1 |
| 20260502033300 | 76 | 13 | 4.0 | 10.0 | 0.00 | 0.00 | 0.00 | 12 | 917.1 |
| 20260502033157 | 76 | 40 | 4.0 | 10.0 | 0.00 | 0.00 | 0.00 | 12 | 917.0 |
| 20260502033051 | 76 | 17 | 4.0 | 10.0 | 0.00 | 0.00 | 0.00 | 12 | 917.0 |
| 20260502032723 | 76 | 9 | 5.0 | 10.0 | 0.00 | 0.00 | 0.00 | 12 | 917.0 |
| 20260502032138 | 77 | 42 | 5.0 | 10.0 | 0.00 | 0.00 | 0.00 | 12 | 916.9 |
| 20260502031809 | 77 | 46 | 5.0 | 10.0 | 0.00 | 0.00 | 0.00 | 12 | 916.8 |
| 20260502031707 | 77 | 10 | 5.0 | 10.0 | 0.00 | 0.00 | 0.00 | 12 | 916.8 |
| 20260502031603 | 77 | 48 | 5.0 | 10.0 | 0.00 | 0.00 | 0.00 | 12 | 916.8 |
| 20260502031459 | 77 | 21 | 5.0 | 10.0 | 0.00 | 0.00 | 0.00 | 12 | 916.7 |
| 20260502031353 | 77 | 28 | 5.0 | 10.0 | 0.00 | 0.00 | 0.00 | 12 | 916.7 |
| 20260502031249 | 77 | 28 | 4.0 | 10.0 | 0.00 | 0.00 | 0.00 | 12 | 916.8 |
| 20260502031145 | 77 | 19 | 4.0 | 10.0 | 0.00 | 0.00 | 0.00 | 12 | 916.8 |
| 20260502031043 | 77 | 12 | 4.0 | 10.0 | 0.00 | 0.00 | 0.00 | 12 | 916.7 |
| 20260502030941 | 77 | 17 | 5.0 | 10.0 | 0.00 | 0.00 | 0.00 | 12 | 916.8 |
| 20260502030837 | 77 | 24 | 5.0 | 10.0 | 0.00 | 0.00 | 0.00 | 11 | 916.7 |
| 20260502030734 | 77 | 5 | 5.0 | 10.0 | 0.00 | 0.00 | 0.00 | 11 | 916.7 |
| 20260502030630 | 77 | 13 | 4.0 | 10.0 | 0.00 | 0.00 | 0.00 | 11 | 916.7 |
| 20260502030305 | 78 | 13 | 5.0 | 10.0 | 0.00 | 0.00 | 0.00 | 11 | 916.7 |
| 20260502025942 | 78 | 30 | 5.0 | 10.0 | 0.00 | 0.00 | 0.00 | 11 | 916.7 |
| 20260502025838 | 78 | 42 | 5.0 | 10.0 | 0.00 | 0.00 | 0.00 | 11 | 916.7 |
| 20260502025730 | 78 | 16 | 5.0 | 10.0 | 0.00 | 0.00 | 0.00 | 11 | 916.6 |
| 20260502025623 | 78 | 9 | 4.0 | 10.0 | 0.00 | 0.00 | 0.00 | 11 | 916.7 |
| 20260502025037 | 78 | 10 | 4.0 | 12.0 | 0.00 | 0.00 | 0.00 | 11 | 916.6 |
| 20260502024934 | 78 | 21 | 4.0 | 12.0 | 0.00 | 0.00 | 0.00 | 11 | 916.6 |
| 20260502024830 | 78 | 40 | 4.0 | 12.0 | 0.00 | 0.00 | 0.00 | 11 | 916.6 |
| 20260502024724 | 78 | 44 | 4.0 | 12.0 | 0.00 | 0.00 | 0.00 | 11 | 916.6 |
| 20260502024616 | 78 | 342 | 4.0 | 12.0 | 0.00 | 0.00 | 0.00 | 11 | 916.6 |
| 20260502024252 | 79 | 21 | 5.0 | 12.0 | 0.00 | 0.00 | 0.00 | 11 | 916.6 |
| 20260502024148 | 79 | 30 | 6.0 | 12.0 | 0.00 | 0.00 | 0.00 | 11 | 916.6 |
| 20260502024045 | 79 | 12 | 6.0 | 12.0 | 0.00 | 0.00 | 0.00 | 11 | 916.5 |
| 20260502023940 | 79 | 0 | 6.0 | 12.0 | 0.00 | 0.00 | 0.00 | 11 | 916.6 |
| 20260502023837 | 79 | 19 | 6.0 | 12.0 | 0.00 | 0.00 | 0.00 | 11 | 916.5 |
| 20260502023732 | 79 | 30 | 6.0 | 12.0 | 0.00 | 0.00 | 0.00 | 11 | 916.5 |
| 20260502023408 | 79 | 32 | 7.0 | 12.0 | 0.00 | 0.00 | 0.00 | 11 | 916.5 |
| 20260502023306 | 79 | 20 | 7.0 | 12.0 | 0.00 | 0.00 | 0.00 | 11 | 916.5 |
| 20260502023203 | 79 | 44 | 6.0 | 11.0 | 0.00 | 0.00 | 0.00 | 11 | 916.5 |
| 20260502023057 | 79 | 34 | 6.0 | 11.0 | 0.00 | 0.00 | 0.00 | 11 | 916.5 |
| 20260502022732 | 79 | 23 | 6.0 | 13.0 | 0.00 | 0.00 | 0.00 | 11 | 916.5 |
| 20260502022410 | 79 | 17 | 6.0 | 13.0 | 0.00 | 0.00 | 0.00 | 11 | 916.4 |
| 20260502022306 | 79 | 24 | 5.0 | 13.0 | 0.00 | 0.00 | 0.00 | 11 | 916.4 |
| 20260502021937 | 80 | 342 | 5.0 | 13.0 | 0.00 | 0.00 | 0.00 | 11 | 916.4 |
| 20260502021830 | 80 | 0 | 5.0 | 13.0 | 0.00 | 0.00 | 0.00 | 11 | 916.4 |
| 20260502021723 | 80 | 9 | 5.0 | 13.0 | 0.00 | 0.00 | 0.00 | 11 | 916.4 |
| 20260502021618 | 80 | 58 | 5.0 | 13.0 | 0.00 | 0.00 | 0.00 | 11 | 916.4 |
| 20260502021515 | 80 | 19 | 5.0 | 13.0 | 0.00 | 0.00 | 0.00 | 11 | 916.4 |
| 20260502021413 | 80 | 32 | 6.0 | 13.0 | 0.00 | 0.00 | 0.00 | 11 | 916.3 |
| 20260502021307 | 80 | 344 | 6.0 | 13.0 | 0.00 | 0.00 | 0.00 | 11 | 916.3 |
| 20260502021204 | 80 | 309 | 6.0 | 13.0 | 0.00 | 0.00 | 0.00 | 11 | 916.3 |
| 20260502021100 | 80 | 323 | 6.0 | 13.0 | 0.00 | 0.00 | 0.00 | 10 | 916.3 |
| 20260502020954 | 80 | 29 | 6.0 | 13.0 | 0.00 | 0.00 | 0.00 | 10 | 916.3 |
| 20260502020847 | 80 | 28 | 6.0 | 13.0 | 0.00 | 0.00 | 0.00 | 10 | 916.3 |
| 20260502020740 | 80 | 349 | 6.0 | 12.0 | 0.00 | 0.00 | 0.00 | 10 | 916.4 |
| 20260502020636 | 80 | 355 | 6.0 | 14.0 | 0.00 | 0.00 | 0.00 | 10 | 916.3 |
| 20260502020307 | 80 | 355 | 7.0 | 14.0 | 0.00 | 0.00 | 0.00 | 10 | 916.2 |
| 20260502015942 | 80 | 350 | 7.0 | 14.0 | 0.00 | 0.00 | 0.00 | 10 | 916.2 |
| 20260502015834 | 80 | 343 | 8.0 | 14.0 | 0.00 | 0.00 | 0.00 | 10 | 916.2 |
| 20260502015727 | 81 | 330 | 8.0 | 15.0 | 0.00 | 0.00 | 0.00 | 10 | 916.2 |
| 20260502015624 | 81 | 338 | 8.0 | 15.0 | 0.00 | 0.00 | 0.00 | 10 | 916.3 |
| 20260502015520 | 81 | 52 | 8.0 | 15.0 | 0.00 | 0.00 | 0.00 | 10 | 916.2 |
| 20260502015413 | 81 | 355 | 8.0 | 15.0 | 0.00 | 0.00 | 0.00 | 10 | 916.2 |
| 20260502015310 | 81 | 9 | 8.0 | 15.0 | 0.00 | 0.00 | 0.00 | 10 | 916.3 |
| 20260502015204 | 81 | 351 | 8.0 | 15.0 | 0.00 | 0.00 | 0.00 | 10 | 916.2 |
| 20260502014843 | 81 | 349 | 8.0 | 15.0 | 0.00 | 0.00 | 0.00 | 10 | 916.2 |
| 20260502014737 | 81 | 355 | 8.0 | 15.0 | 0.00 | 0.00 | 0.00 | 10 | 916.2 |
| 20260502014634 | 81 | 5 | 8.0 | 16.0 | 0.00 | 0.00 | 0.00 | 10 | 916.2 |
| 20260502014307 | 81 | 355 | 8.0 | 16.0 | 0.00 | 0.00 | 0.00 | 10 | 916.2 |
| 20260502014200 | 82 | 343 | 7.0 | 16.0 | 0.00 | 0.00 | 0.00 | 10 | 916.2 |
| 20260502014053 | 82 | 355 | 7.0 | 16.0 | 0.00 | 0.00 | 0.00 | 10 | 916.2 |
| 20260502013731 | 82 | 336 | 8.0 | 16.0 | 0.00 | 0.00 | 0.00 | 10 | 916.2 |
| 20260502013625 | 82 | 339 | 8.0 | 16.0 | 0.00 | 0.00 | 0.00 | 10 | 916.2 |
| 20260502013519 | 82 | 0 | 8.0 | 16.0 | 0.00 | 0.00 | 0.00 | 10 | 916.2 |
| 20260502013416 | 82 | 349 | 8.0 | 16.0 | 0.00 | 0.00 | 0.00 | 10 | 916.2 |
| 20260502013053 | 82 | 5 | 9.0 | 16.0 | 0.00 | 0.00 | 0.00 | 10 | 916.2 |
| 20260502012946 | 82 | 355 | 9.0 | 16.0 | 0.00 | 0.00 | 0.00 | 10 | 916.2 |
| 20260502012620 | 82 | 0 | 8.0 | 15.0 | 0.00 | 0.00 | 0.00 | 10 | 916.1 |
| 20260502012512 | 82 | 349 | 8.0 | 15.0 | 0.00 | 0.00 | 0.00 | 10 | 916.2 |
| 20260502012405 | 82 | 0 | 8.0 | 15.0 | 0.00 | 0.00 | 0.00 | 10 | 916.1 |
| 20260502012306 | 82 | 355 | 8.0 | 15.0 | 0.00 | 0.00 | 0.00 | 10 | 916.1 |
| 20260502012158 | 82 | 10 | 8.0 | 15.0 | 0.00 | 0.00 | 0.00 | 10 | 916.1 |
| 20260502012056 | 82 | 325 | 8.0 | 15.0 | 0.00 | 0.00 | 0.00 | 10 | 916.1 |
| 20260502011949 | 83 | 12 | 8.0 | 15.0 | 0.00 | 0.00 | 0.00 | 10 | 916.1 |
| 20260502011843 | 83 | 348 | 7.0 | 15.0 | 0.00 | 0.00 | 0.00 | 10 | 916.1 |
| 20260502011736 | 83 | 5 | 7.0 | 15.0 | 0.00 | 0.00 | 0.00 | 10 | 916.1 |
| 20260502011631 | 83 | 340 | 6.0 | 16.0 | 0.00 | 0.00 | 0.00 | 10 | 916.1 |
| 20260502011524 | 83 | 42 | 6.0 | 16.0 | 0.00 | 0.00 | 0.00 | 10 | 916.0 |
| 20260502011417 | 83 | 15 | 6.0 | 16.0 | 0.00 | 0.00 | 0.00 | 10 | 916.1 |
| 20260502011310 | 83 | 347 | 6.0 | 16.0 | 0.00 | 0.00 | 0.00 | 10 | 916.1 |
| 20260502011206 | 83 | 0 | 6.0 | 16.0 | 0.00 | 0.00 | 0.00 | 10 | 916.0 |
| 20260502011101 | 83 | 21 | 6.0 | 16.0 | 0.00 | 0.00 | 0.00 | 10 | 916.1 |
| 20260502010957 | 83 | 325 | 6.0 | 16.0 | 0.00 | 0.00 | 0.00 | 10 | 916.0 |
| 20260502010851 | 83 | 288 | 6.0 | 16.0 | 0.00 | 0.00 | 0.00 | 10 | 916.0 |
| 20260502010749 | 83 | 284 | 7.0 | 16.0 | 0.00 | 0.00 | 0.00 | 10 | 916.1 |
| 20260502010644 | 83 | 333 | 7.0 | 16.0 | 0.00 | 0.00 | 0.00 | 10 | 916.1 |
| 20260502010542 | 84 | 293 | 7.0 | 16.0 | 0.00 | 0.00 | 0.00 | 10 | 916.1 |
| 20260502010216 | 84 | 15 | 5.0 | 16.0 | 0.00 | 0.00 | 0.00 | 9 | 916.1 |
| 20260502010114 | 84 | 351 | 4.0 | 16.0 | 0.00 | 0.00 | 0.00 | 9 | 916.1 |
| 20260502010012 | 84 | 323 | 4.0 | 16.0 | 0.00 | 0.00 | 0.00 | 10 | 916.1 |
| 20260502005649 | 84 | 5 | 2.0 | 13.0 | 0.00 | 0.00 | 0.00 | 10 | 916.0 |
| 20260502005544 | 84 | 292 | 2.0 | 11.0 | 0.00 | 0.00 | 0.00 | 10 | 916.1 |
| 20260502005442 | 85 | 289 | 2.0 | 11.0 | 0.00 | 0.00 | 0.00 | 10 | 916.1 |
| 20260502005117 | 85 | 347 | 3.0 | 11.0 | 0.00 | 0.00 | 0.00 | 10 | 916.1 |
| 20260502005013 | 85 | 5 | 3.0 | 11.0 | 0.00 | 0.00 | 0.00 | 10 | 916.1 |
| 20260502004909 | 85 | 298 | 3.0 | 11.0 | 0.00 | 0.00 | 0.00 | 10 | 916.0 |
| 20260502004803 | 85 | 355 | 3.0 | 11.0 | 0.00 | 0.00 | 0.00 | 10 | 916.0 |
| 20260502004656 | 85 | 280 | 3.0 | 11.0 | 0.00 | 0.00 | 0.00 | 10 | 916.1 |
| 20260502004550 | 85 | 29 | 3.0 | 11.0 | 0.00 | 0.00 | 0.00 | 10 | 916.0 |
| 20260502004445 | 85 | 306 | 3.0 | 11.0 | 0.00 | 0.00 | 0.00 | 10 | 916.0 |
| 20260502004342 | 85 | 349 | 3.0 | 11.0 | 0.00 | 0.00 | 0.00 | 10 | 916.0 |
| 20260502004235 | 85 | 355 | 3.0 | 11.0 | 0.00 | 0.00 | 0.00 | 10 | 916.1 |
| 20260502003645 | 85 | 265 | 4.0 | 11.0 | 0.00 | 0.00 | 0.00 | 10 | 916.0 |
| 20260502003100 | 85 | 304 | 4.0 | 11.0 | 0.00 | 0.00 | 0.00 | 10 | 916.0 |
| 20260502002957 | 85 | 331 | 4.0 | 11.0 | 0.00 | 0.00 | 0.00 | 10 | 916.0 |
| 20260502002854 | 85 | 325 | 4.0 | 11.0 | 0.00 | 0.00 | 0.00 | 10 | 916.0 |
| 20260502002750 | 85 | 329 | 4.0 | 11.0 | 0.00 | 0.00 | 0.00 | 10 | 916.0 |
| 20260502002645 | 85 | 302 | 4.0 | 11.0 | 0.00 | 0.00 | 0.00 | 10 | 916.0 |
| 20260502002543 | 85 | 5 | 4.0 | 11.0 | 0.00 | 0.00 | 0.00 | 10 | 915.9 |
| 20260502002437 | 85 | 318 | 4.0 | 11.0 | 0.00 | 0.00 | 0.00 | 10 | 916.0 |
| 20260502001852 | 85 | 5 | 4.0 | 14.0 | 0.00 | 0.00 | 0.00 | 11 | 915.9 |
| 20260502001746 | 85 | 241 | 4.0 | 14.0 | 0.00 | 0.00 | 0.00 | 11 | 916.0 |
| 20260502001642 | 85 | 273 | 4.0 | 14.0 | 0.00 | 0.00 | 0.00 | 11 | 916.0 |
| 20260502001539 | 85 | 266 | 4.0 | 14.0 | 0.00 | 0.00 | 0.00 | 11 | 915.9 |
| 20260502001435 | 85 | 298 | 3.0 | 14.0 | 0.00 | 0.00 | 0.00 | 10 | 916.0 |
| 20260502001330 | 85 | 259 | 3.0 | 14.0 | 0.00 | 0.00 | 0.00 | 10 | 916.0 |
| 20260502001223 | 85 | 281 | 4.0 | 14.0 | 0.00 | 0.00 | 0.00 | 10 | 916.0 |
| 20260502001120 | 85 | 34 | 4.0 | 14.0 | 0.00 | 0.00 | 0.00 | 10 | 916.0 |
| 20260502001015 | 85 | 259 | 4.0 | 14.0 | 0.00 | 0.00 | 0.00 | 10 | 916.0 |
| 20260502000911 | 85 | 288 | 4.0 | 14.0 | 0.00 | 0.00 | 0.00 | 10 | 916.0 |
| 20260502000807 | 85 | 334 | 4.0 | 14.0 | 0.00 | 0.00 | 0.00 | 11 | 916.0 |
| 20260502000705 | 85 | 279 | 5.0 | 14.0 | 0.00 | 0.00 | 0.00 | 10 | 916.0 |
| 20260502000601 | 85 | 290 | 5.0 | 14.0 | 0.00 | 0.00 | 0.00 | 11 | 916.0 |
| 20260502000240 | 85 | 300 | 5.0 | 14.0 | 0.00 | 0.00 | 0.00 | 10 | 916.0 |
| 20260502000135 | 85 | 345 | 5.0 | 14.0 | 0.00 | 0.00 | 0.00 | 10 | 916.0 |
| 20260502000028 | 85 | 310 | 4.0 | 11.0 | 0.00 | 0.00 | 0.00 | 10 | 916.1 |
| 20260501235921 | 85 | 254 | 4.0 | 11.0 | 0.00 | 0.00 | 0.00 | 10 | 916.0 |
| 20260501235816 | 85 | 286 | 4.0 | 11.0 | 0.00 | 0.00 | 0.00 | 10 | 916.0 |
| 20260501235710 | 85 | 315 | 4.0 | 11.0 | 0.00 | 0.00 | 0.00 | 10 | 916.0 |
| 20260501235603 | 85 | 311 | 4.0 | 11.0 | 0.00 | 0.00 | 0.00 | 10 | 916.0 |
| 20260501235237 | 85 | 271 | 4.0 | 15.0 | 0.00 | 0.00 | 0.00 | 10 | 916.0 |
| 20260501235131 | 86 | 277 | 3.0 | 15.0 | 0.00 | 0.00 | 0.00 | 10 | 916.0 |
| 20260501235029 | 85 | 333 | 4.0 | 15.0 | 0.00 | 0.00 | 0.00 | 10 | 916.1 |
| 20260501234927 | 85 | 275 | 4.0 | 15.0 | 0.00 | 0.00 | 0.00 | 10 | 916.0 |
| 20260501234821 | 85 | 295 | 4.0 | 15.0 | 0.00 | 0.00 | 0.00 | 10 | 916.0 |
| 20260501234457 | 85 | 323 | 5.0 | 15.0 | 0.00 | 0.00 | 0.00 | 11 | 916.1 |
| 20260501234354 | 85 | 312 | 5.0 | 15.0 | 0.00 | 0.00 | 0.00 | 11 | 916.1 |
| 20260501234246 | 85 | 277 | 5.0 | 15.0 | 0.00 | 0.00 | 0.00 | 10 | 916.1 |
| 20260501234138 | 85 | 242 | 6.0 | 15.0 | 0.00 | 0.00 | 0.00 | 11 | 916.1 |
| 20260501234033 | 85 | 247 | 6.0 | 15.0 | 0.00 | 0.00 | 0.00 | 10 | 916.1 |
| 20260501233712 | 85 | 296 | 5.0 | 15.0 | 0.00 | 0.00 | 0.00 | 10 | 916.0 |
| 20260501233605 | 86 | 269 | 5.0 | 15.0 | 0.00 | 0.00 | 0.00 | 10 | 916.0 |
| 20260501233458 | 86 | 290 | 5.0 | 15.0 | 0.00 | 0.00 | 0.00 | 10 | 916.0 |
| 20260501233356 | 86 | 248 | 5.0 | 14.0 | 0.00 | 0.00 | 0.00 | 10 | 916.0 |
| 20260501233036 | 86 | 288 | 5.0 | 14.0 | 0.00 | 0.00 | 0.00 | 10 | 916.0 |
| 20260501232931 | 86 | 230 | 6.0 | 14.0 | 0.00 | 0.00 | 0.00 | 10 | 916.0 |
| 20260501232827 | 86 | 246 | 6.0 | 14.0 | 0.00 | 0.00 | 0.00 | 10 | 916.0 |
| 20260501232724 | 86 | 246 | 5.0 | 14.0 | 0.00 | 0.00 | 0.00 | 10 | 916.0 |
| 20260501232620 | 86 | 252 | 5.0 | 14.0 | 0.00 | 0.00 | 0.00 | 10 | 916.0 |
| 20260501232517 | 86 | 242 | 5.0 | 14.0 | 0.00 | 0.00 | 0.00 | 10 | 916.0 |
| 20260501231932 | 86 | 245 | 3.0 | 13.0 | 0.00 | 0.00 | 0.00 | 10 | 916.0 |
| 20260501231824 | 86 | 308 | 4.0 | 13.0 | 0.00 | 0.00 | 0.00 | 10 | 916.0 |
| 20260501231720 | 86 | 297 | 4.0 | 13.0 | 0.00 | 0.00 | 0.00 | 10 | 916.1 |
| 20260501231615 | 86 | 229 | 4.0 | 13.0 | 0.00 | 0.00 | 0.00 | 10 | 916.1 |
| 20260501231512 | 86 | 250 | 5.0 | 13.0 | 0.00 | 0.00 | 0.00 | 10 | 916.2 |
| 20260501231149 | 86 | 67 | 4.0 | 12.0 | 0.00 | 0.00 | 0.00 | 10 | 916.3 |
| 20260501231042 | 86 | 281 | 4.0 | 12.0 | 0.00 | 0.00 | 0.00 | 10 | 916.3 |
| 20260501230938 | 86 | 5 | 4.0 | 14.0 | 0.00 | 0.00 | 0.00 | 10 | 916.3 |
| 20260501230835 | 86 | 300 | 4.0 | 14.0 | 0.00 | 0.00 | 0.00 | 10 | 916.2 |
| 20260501230729 | 86 | 288 | 4.0 | 14.0 | 0.00 | 0.00 | 0.00 | 10 | 916.2 |
| 20260501230622 | 86 | 300 | 4.0 | 14.0 | 0.00 | 0.00 | 0.00 | 10 | 916.3 |
| 20260501230516 | 87 | 260 | 4.0 | 14.0 | 0.00 | 0.00 | 0.00 | 10 | 916.3 |
| 20260501230409 | 87 | 246 | 4.0 | 14.0 | 0.00 | 0.00 | 0.00 | 10 | 916.3 |
| 20260501230306 | 86 | 238 | 4.0 | 14.0 | 0.00 | 0.00 | 0.00 | 10 | 916.3 |
| 20260501230202 | 86 | 277 | 4.0 | 14.0 | 0.00 | 0.00 | 0.00 | 10 | 916.4 |
| 20260501225838 | 86 | 266 | 4.0 | 14.0 | 0.00 | 0.00 | 0.00 | 10 | 916.3 |
| 20260501225513 | 86 | 315 | 4.0 | 14.0 | 0.00 | 0.00 | 0.00 | 10 | 916.4 |
| 20260501225406 | 86 | 300 | 4.0 | 14.0 | 0.00 | 0.00 | 0.00 | 10 | 916.4 |
| 20260501225300 | 86 | 269 | 4.0 | 14.0 | 0.00 | 0.00 | 0.00 | 10 | 916.4 |
| 20260501225156 | 86 | 244 | 4.0 | 14.0 | 0.00 | 0.00 | 0.00 | 10 | 916.5 |
| 20260501224835 | 86 | 259 | 4.0 | 11.0 | 0.00 | 0.00 | 0.00 | 11 | 916.4 |
| 20260501224731 | 86 | 296 | 4.0 | 11.0 | 0.00 | 0.00 | 0.00 | 10 | 916.5 |
| 20260501224628 | 86 | 294 | 5.0 | 11.0 | 0.00 | 0.00 | 0.00 | 10 | 916.5 |
| 20260501224525 | 86 | 253 | 5.0 | 11.0 | 0.00 | 0.00 | 0.00 | 10 | 916.5 |
| 20260501224423 | 86 | 292 | 4.0 | 11.0 | 0.00 | 0.00 | 0.00 | 10 | 916.5 |
| 20260501224319 | 86 | 231 | 4.0 | 10.0 | 0.00 | 0.00 | 0.00 | 10 | 916.6 |
| 20260501224217 | 86 | 236 | 5.0 | 14.0 | 0.00 | 0.00 | 0.00 | 10 | 916.6 |
| 20260501224112 | 86 | 249 | 5.0 | 14.0 | 0.00 | 0.00 | 0.00 | 10 | 916.6 |
| 20260501224005 | 86 | 286 | 4.0 | 14.0 | 0.00 | 0.00 | 0.00 | 10 | 916.6 |
| 20260501223903 | 86 | 256 | 4.0 | 14.0 | 0.00 | 0.00 | 0.00 | 10 | 916.6 |
| 20260501223757 | 86 | 30 | 4.0 | 14.0 | 0.00 | 0.00 | 0.00 | 10 | 916.6 |
| 20260501223652 | 86 | 239 | 4.0 | 14.0 | 0.00 | 0.00 | 0.00 | 10 | 916.7 |
| 20260501223545 | 86 | 254 | 4.0 | 14.0 | 0.00 | 0.00 | 0.00 | 10 | 916.7 |
| 20260501223442 | 86 | 250 | 4.0 | 14.0 | 0.00 | 0.00 | 0.00 | 10 | 916.7 |
| 20260501223339 | 86 | 304 | 4.0 | 14.0 | 0.00 | 0.00 | 0.00 | 10 | 916.7 |
| 20260501223235 | 86 | 281 | 4.0 | 14.0 | 0.00 | 0.00 | 0.00 | 10 | 916.8 |
| 20260501223127 | 86 | 276 | 4.0 | 14.0 | 0.00 | 0.00 | 0.00 | 10 | 916.7 |
| 20260501223023 | 86 | 306 | 4.0 | 14.0 | 0.00 | 0.00 | 0.00 | 10 | 916.8 |
| 20260501222919 | 86 | 259 | 4.0 | 14.0 | 0.00 | 0.00 | 0.00 | 10 | 916.7 |
| 20260501222812 | 86 | 326 | 4.0 | 14.0 | 0.00 | 0.00 | 0.00 | 10 | 916.7 |
| 20260501222706 | 86 | 194 | 4.0 | 14.0 | 0.00 | 0.00 | 0.00 | 10 | 916.7 |
| 20260501222603 | 86 | 283 | 4.0 | 14.0 | 0.00 | 0.00 | 0.00 | 10 | 916.7 |
| 20260501222239 | 86 | 315 | 4.0 | 14.0 | 0.00 | 0.00 | 0.00 | 10 | 916.8 |
| 20260501221918 | 86 | 302 | 5.0 | 14.0 | 0.00 | 0.00 | 0.00 | 10 | 916.8 |
| 20260501221812 | 86 | 285 | 5.0 | 14.0 | 0.00 | 0.00 | 0.00 | 10 | 916.8 |
| 20260501221709 | 86 | 338 | 5.0 | 14.0 | 0.00 | 0.00 | 0.00 | 10 | 916.8 |
| 20260501221602 | 86 | 318 | 5.0 | 14.0 | 0.00 | 0.00 | 0.00 | 10 | 916.8 |
| 20260501221458 | 86 | 266 | 5.0 | 14.0 | 0.00 | 0.00 | 0.00 | 10 | 916.8 |
| 20260501221354 | 86 | 280 | 6.0 | 14.0 | 0.00 | 0.00 | 0.00 | 10 | 916.9 |
| 20260501221248 | 86 | 277 | 6.0 | 14.0 | 0.00 | 0.00 | 0.00 | 10 | 916.9 |
| 20260501221141 | 86 | 303 | 5.0 | 14.0 | 0.00 | 0.00 | 0.00 | 10 | 916.9 |
| 20260501221038 | 86 | 278 | 5.0 | 14.0 | 0.00 | 0.00 | 0.00 | 10 | 916.9 |
| 20260501220935 | 86 | 319 | 5.0 | 14.0 | 0.00 | 0.00 | 0.00 | 10 | 916.9 |
| 20260501220831 | 86 | 279 | 5.0 | 14.0 | 0.00 | 0.00 | 0.00 | 10 | 916.9 |
| 20260501220727 | 86 | 298 | 4.0 | 14.0 | 0.00 | 0.00 | 0.00 | 10 | 917.0 |
| 20260501220624 | 86 | 336 | 4.0 | 14.0 | 0.00 | 0.00 | 0.00 | 10 | 917.0 |
| 20260501220521 | 86 | 290 | 5.0 | 14.0 | 0.00 | 0.00 | 0.00 | 10 | 916.9 |
| 20260501220417 | 87 | 259 | 4.0 | 14.0 | 0.00 | 0.00 | 0.00 | 10 | 916.9 |
| 20260501220051 | 86 | 331 | 4.0 | 12.0 | 0.00 | 0.00 | 0.00 | 11 | 916.9 |
| 20260501215948 | 86 | 254 | 4.0 | 12.0 | 0.00 | 0.00 | 0.00 | 11 | 917.0 |
| 20260501215843 | 86 | 277 | 4.0 | 12.0 | 0.00 | 0.00 | 0.00 | 10 | 917.0 |
| 20260501215738 | 86 | 247 | 4.0 | 12.0 | 0.00 | 0.00 | 0.00 | 10 | 917.0 |
| 20260501215634 | 86 | 239 | 4.0 | 12.0 | 0.00 | 0.00 | 0.00 | 10 | 916.9 |
| 20260501215531 | 86 | 225 | 3.0 | 12.0 | 0.00 | 0.00 | 0.00 | 10 | 917.0 |
| 20260501215423 | 86 | 248 | 3.0 | 12.0 | 0.00 | 0.00 | 0.00 | 10 | 917.1 |
| 20260501215317 | 86 | 335 | 3.0 | 12.0 | 0.00 | 0.00 | 0.00 | 10 | 917.0 |
| 20260501215210 | 86 | 267 | 2.0 | 12.0 | 0.00 | 0.00 | 0.00 | 10 | 917.1 |
| 20260501214843 | 86 | 264 | 2.0 | 12.0 | 0.00 | 0.00 | 0.00 | 11 | 917.1 |
| 20260501214736 | 86 | 270 | 3.0 | 12.0 | 0.00 | 0.00 | 0.00 | 10 | 917.1 |
| 20260501214629 | 86 | 306 | 3.0 | 12.0 | 0.00 | 0.00 | 0.00 | 10 | 917.1 |
| 20260501214527 | 86 | 314 | 3.0 | 12.0 | 0.00 | 0.00 | 0.00 | 10 | 917.1 |
| 20260501214201 | 86 | 298 | 4.0 | 13.0 | 0.00 | 0.00 | 0.00 | 10 | 917.2 |
| 20260501214054 | 86 | 265 | 3.0 | 13.0 | 0.00 | 0.00 | 0.00 | 10 | 917.2 |
| 20260501213950 | 86 | 285 | 3.0 | 13.0 | 0.00 | 0.00 | 0.00 | 10 | 917.2 |
| 20260501213846 | 86 | 301 | 3.0 | 13.0 | 0.00 | 0.00 | 0.00 | 10 | 917.2 |
| 20260501213743 | 86 | 326 | 3.0 | 13.0 | 0.00 | 0.00 | 0.00 | 10 | 917.2 |
| 20260501213640 | 86 | 267 | 3.0 | 13.0 | 0.00 | 0.00 | 0.00 | 11 | 917.2 |
| 20260501213535 | 86 | 282 | 3.0 | 13.0 | 0.00 | 0.00 | 0.00 | 10 | 917.3 |
| 20260501213431 | 86 | 296 | 3.0 | 13.0 | 0.00 | 0.00 | 0.00 | 11 | 917.3 |
| 20260501213329 | 86 | 286 | 4.0 | 13.0 | 0.00 | 0.00 | 0.00 | 11 | 917.3 |
| 20260501213224 | 86 | 271 | 4.0 | 13.0 | 0.00 | 0.00 | 0.00 | 11 | 917.2 |
| 20260501213119 | 86 | 244 | 4.0 | 13.0 | 0.00 | 0.00 | 0.00 | 10 | 917.2 |
| 20260501213015 | 86 | 240 | 4.0 | 13.0 | 0.00 | 0.00 | 0.00 | 10 | 917.2 |
| 20260501212912 | 86 | 244 | 4.0 | 13.0 | 0.00 | 0.00 | 0.00 | 11 | 917.2 |
| 20260501212806 | 86 | 248 | 4.0 | 13.0 | 0.00 | 0.00 | 0.00 | 11 | 917.3 |
| 20260501212659 | 86 | 302 | 4.0 | 13.0 | 0.00 | 0.00 | 0.00 | 10 | 917.3 |
| 20260501212553 | 86 | 293 | 4.0 | 13.0 | 0.00 | 0.00 | 0.00 | 10 | 917.2 |
| 20260501212447 | 86 | 304 | 4.0 | 13.0 | 0.00 | 0.00 | 0.00 | 10 | 917.3 |
| 20260501212342 | 86 | 302 | 3.0 | 17.0 | 0.00 | 0.00 | 0.00 | 10 | 917.3 |
| 20260501211753 | 86 | 275 | 4.0 | 17.0 | 0.00 | 0.00 | 0.00 | 10 | 917.4 |
| 20260501211648 | 86 | 314 | 4.0 | 17.0 | 0.00 | 0.00 | 0.00 | 10 | 917.4 |
| 20260501211542 | 86 | 302 | 4.0 | 17.0 | 0.00 | 0.00 | 0.00 | 10 | 917.4 |
| 20260501211217 | 86 | 201 | 4.0 | 17.0 | 0.00 | 0.00 | 0.00 | 11 | 917.4 |
| 20260501211114 | 86 | 285 | 4.0 | 17.0 | 0.00 | 0.00 | 0.00 | 11 | 917.5 |
| 20260501211007 | 85 | 288 | 5.0 | 17.0 | 0.00 | 0.00 | 0.00 | 11 | 917.4 |
| 20260501210902 | 85 | 247 | 5.0 | 17.0 | 0.00 | 0.00 | 0.00 | 10 | 917.4 |
| 20260501210801 | 85 | 282 | 5.0 | 17.0 | 0.00 | 0.00 | 0.00 | 10 | 917.5 |
| 20260501210658 | 85 | 319 | 5.0 | 17.0 | 0.00 | 0.00 | 0.00 | 10 | 917.5 |
| 20260501210553 | 85 | 300 | 6.0 | 17.0 | 0.00 | 0.00 | 0.00 | 11 | 917.5 |
| 20260501210447 | 85 | 294 | 5.0 | 17.0 | 0.00 | 0.00 | 0.00 | 10 | 917.4 |
| 20260501210127 | 85 | 236 | 5.0 | 13.0 | 0.00 | 0.00 | 0.00 | 10 | 917.6 |
| 20260501210020 | 85 | 263 | 5.0 | 13.0 | 0.00 | 0.00 | 0.00 | 10 | 917.5 |
| 20260501205917 | 86 | 256 | 5.0 | 13.0 | 0.00 | 0.00 | 0.00 | 11 | 917.6 |
| 20260501205815 | 86 | 240 | 5.0 | 13.0 | 0.00 | 0.00 | 0.00 | 11 | 917.6 |
| 20260501205710 | 86 | 229 | 5.0 | 13.0 | 0.00 | 0.00 | 0.00 | 10 | 917.6 |
| 20260501205603 | 86 | 277 | 4.0 | 13.0 | 0.00 | 0.00 | 0.00 | 11 | 917.6 |
| 20260501205238 | 86 | 219 | 4.0 | 11.0 | 0.00 | 0.00 | 0.00 | 11 | 917.6 |
| 20260501205132 | 86 | 301 | 4.0 | 11.0 | 0.00 | 0.00 | 0.00 | 11 | 917.6 |
| 20260501205028 | 86 | 275 | 3.0 | 11.0 | 0.00 | 0.00 | 0.00 | 11 | 917.6 |
| 20260501204925 | 86 | 277 | 3.0 | 11.0 | 0.00 | 0.00 | 0.00 | 11 | 917.6 |
| 20260501204822 | 86 | 238 | 3.0 | 11.0 | 0.00 | 0.00 | 0.00 | 11 | 917.6 |
| 20260501204717 | 85 | 244 | 3.0 | 10.0 | 0.00 | 0.00 | 0.00 | 11 | 917.6 |
| 20260501204613 | 85 | 212 | 3.0 | 10.0 | 0.00 | 0.00 | 0.00 | 11 | 917.6 |
| 20260501204508 | 85 | 222 | 4.0 | 10.0 | 0.00 | 0.00 | 0.00 | 11 | 917.7 |
| 20260501204405 | 85 | 242 | 4.0 | 11.0 | 0.00 | 0.00 | 0.00 | 11 | 917.7 |
| 20260501204258 | 85 | 247 | 4.0 | 11.0 | 0.00 | 0.00 | 0.00 | 11 | 917.7 |
| 20260501204155 | 85 | 232 | 5.0 | 11.0 | 0.00 | 0.00 | 0.00 | 11 | 917.7 |
| 20260501204048 | 85 | 259 | 5.0 | 11.0 | 0.00 | 0.00 | 0.00 | 10 | 917.7 |
| 20260501203946 | 85 | 5 | 5.0 | 11.0 | 0.00 | 0.00 | 0.00 | 11 | 917.7 |
| 20260501203843 | 85 | 312 | 5.0 | 11.0 | 0.00 | 0.00 | 0.00 | 10 | 917.7 |
| 20260501203737 | 85 | 306 | 5.0 | 11.0 | 0.00 | 0.00 | 0.00 | 11 | 917.7 |
| 20260501203415 | 85 | 242 | 5.0 | 12.0 | 0.00 | 0.00 | 0.00 | 11 | 917.7 |
| 20260501203052 | 86 | 280 | 4.0 | 12.0 | 0.00 | 0.00 | 0.00 | 11 | 917.6 |
| 20260501202946 | 86 | 294 | 5.0 | 12.0 | 0.00 | 0.00 | 0.00 | 11 | 917.7 |
| 20260501202841 | 86 | 302 | 5.0 | 12.0 | 0.00 | 0.00 | 0.00 | 11 | 917.7 |
| 20260501202738 | 86 | 232 | 5.0 | 12.0 | 0.00 | 0.00 | 0.00 | 11 | 917.7 |
| 20260501202632 | 86 | 274 | 5.0 | 12.0 | 0.00 | 0.00 | 0.00 | 11 | 917.7 |
| 20260501202524 | 86 | 0 | 5.0 | 12.0 | 0.00 | 0.00 | 0.00 | 12 | 917.6 |
| 20260501202420 | 86 | 265 | 4.0 | 13.0 | 0.00 | 0.00 | 0.00 | 11 | 917.7 |
| 20260501202315 | 86 | 254 | 4.0 | 13.0 | 0.00 | 0.00 | 0.00 | 12 | 917.7 |
| 20260501202209 | 86 | 252 | 3.0 | 13.0 | 0.00 | 0.00 | 0.00 | 12 | 917.7 |
| 20260501202107 | 86 | 286 | 3.0 | 13.0 | 0.00 | 0.00 | 0.00 | 12 | 917.7 |
| 20260501202002 | 86 | 245 | 3.0 | 13.0 | 0.00 | 0.00 | 0.00 | 12 | 917.7 |
| 20260501201858 | 86 | 261 | 3.0 | 13.0 | 0.00 | 0.00 | 0.00 | 12 | 917.8 |
| 20260501201752 | 86 | 227 | 3.0 | 13.0 | 0.00 | 0.00 | 0.00 | 12 | 917.7 |
| 20260501201649 | 85 | 232 | 3.0 | 13.0 | 0.00 | 0.00 | 0.00 | 12 | 917.7 |
| 20260501201542 | 85 | 231 | 3.0 | 13.0 | 0.00 | 0.00 | 0.00 | 12 | 917.8 |
| 20260501201436 | 85 | 302 | 4.0 | 13.0 | 0.00 | 0.00 | 0.00 | 12 | 917.8 |
| 20260501201115 | 85 | 334 | 5.0 | 13.0 | 0.00 | 0.00 | 0.00 | 12 | 917.8 |
| 20260501201011 | 85 | 293 | 5.0 | 13.0 | 0.00 | 0.00 | 0.00 | 12 | 917.8 |
| 20260501200909 | 85 | 281 | 5.0 | 13.0 | 0.00 | 0.00 | 0.00 | 12 | 917.8 |
| 20260501200807 | 85 | 282 | 4.0 | 13.0 | 0.00 | 0.00 | 0.00 | 12 | 917.9 |
| 20260501200701 | 85 | 233 | 4.0 | 13.0 | 0.00 | 0.00 | 0.00 | 12 | 917.9 |
| 20260501200557 | 85 | 206 | 4.0 | 13.0 | 0.00 | 0.00 | 0.00 | 11 | 917.9 |
| 20260501200452 | 85 | 223 | 3.0 | 13.0 | 0.00 | 0.00 | 0.00 | 11 | 917.9 |
| 20260501200130 | 85 | 264 | 3.0 | 12.0 | 0.00 | 0.00 | 0.00 | 13 | 917.9 |
| 20260501200025 | 85 | 227 | 3.0 | 12.0 | 0.00 | 0.00 | 0.00 | 13 | 917.9 |
| 20260501195921 | 85 | 243 | 4.0 | 12.0 | 0.00 | 0.00 | 0.00 | 12 | 917.9 |
| 20260501195816 | 85 | 235 | 4.0 | 12.0 | 0.00 | 0.00 | 0.00 | 13 | 917.9 |
| 20260501195711 | 85 | 278 | 4.0 | 12.0 | 0.00 | 0.00 | 0.00 | 13 | 918.0 |
| 20260501195603 | 85 | 252 | 4.0 | 12.0 | 0.00 | 0.00 | 0.00 | 13 | 918.0 |
| 20260501195500 | 85 | 229 | 4.0 | 12.0 | 0.00 | 0.00 | 0.00 | 13 | 918.0 |
| 20260501195355 | 85 | 234 | 5.0 | 12.0 | 0.00 | 0.00 | 0.00 | 13 | 918.0 |
| 20260501195253 | 85 | 219 | 5.0 | 12.0 | 0.00 | 0.00 | 0.00 | 13 | 918.0 |
| 20260501195150 | 85 | 219 | 5.0 | 12.0 | 0.00 | 0.00 | 0.00 | 13 | 918.0 |
| 20260501195048 | 85 | 204 | 4.0 | 12.0 | 0.00 | 0.00 | 0.00 | 13 | 917.9 |
| 20260501194943 | 85 | 169 | 4.0 | 12.0 | 0.00 | 0.00 | 0.00 | 13 | 917.9 |
| 20260501194840 | 85 | 199 | 4.0 | 12.0 | 0.00 | 0.00 | 0.00 | 13 | 918.0 |
| 20260501194737 | 85 | 196 | 4.0 | 12.0 | 0.00 | 0.00 | 0.00 | 13 | 918.0 |
| 20260501194632 | 85 | 186 | 4.0 | 12.0 | 0.00 | 0.00 | 0.00 | 13 | 918.0 |
| 20260501194530 | 85 | 200 | 3.0 | 12.0 | 0.00 | 0.00 | 0.00 | 13 | 918.0 |
| 20260501194203 | 85 | 313 | 1.0 | 8.0 | 0.00 | 0.00 | 0.00 | 13 | 918.1 |
| 20260501193841 | 85 | 348 | 1.0 | 6.0 | 0.00 | 0.00 | 0.00 | 13 | 918.1 |
| 20260501193736 | 85 | 290 | 1.0 | 6.0 | 0.00 | 0.00 | 0.00 | 13 | 918.2 |
| 20260501193632 | 84 | 355 | 2.0 | 6.0 | 0.00 | 0.00 | 0.00 | 13 | 918.1 |
| 20260501193528 | 84 | 304 | 2.0 | 11.0 | 0.00 | 0.00 | 0.00 | 13 | 918.2 |
| 20260501193425 | 84 | 267 | 2.0 | 11.0 | 0.00 | 0.00 | 0.00 | 13 | 918.2 |
| 20260501193319 | 84 | 257 | 2.0 | 11.0 | 0.00 | 0.00 | 0.00 | 14 | 918.2 |
| 20260501192736 | 84 | 251 | 3.0 | 11.0 | 0.00 | 0.00 | 0.00 | 13 | 918.3 |
| 20260501192629 | 84 | 301 | 3.0 | 11.0 | 0.00 | 0.00 | 0.00 | 14 | 918.3 |
| 20260501192523 | 84 | 343 | 4.0 | 11.0 | 0.00 | 0.00 | 0.00 | 14 | 918.3 |
| 20260501192421 | 84 | 248 | 4.0 | 11.0 | 0.00 | 0.00 | 0.00 | 14 | 918.4 |
| 20260501192316 | 84 | 271 | 4.0 | 11.0 | 0.00 | 0.00 | 0.00 | 13 | 918.4 |
| 20260501192211 | 84 | 302 | 3.0 | 11.0 | 0.00 | 0.00 | 0.00 | 14 | 918.3 |
| 20260501192108 | 84 | 217 | 3.0 | 11.0 | 0.00 | 0.00 | 0.00 | 14 | 918.3 |
| 20260501192006 | 84 | 227 | 3.0 | 11.0 | 0.00 | 0.00 | 0.00 | 14 | 918.4 |
| 20260501191904 | 84 | 229 | 3.0 | 11.0 | 0.00 | 0.00 | 0.00 | 13 | 918.4 |
| 20260501191756 | 84 | 215 | 3.0 | 11.0 | 0.00 | 0.00 | 0.00 | 13 | 918.4 |
| 20260501191651 | 84 | 217 | 3.0 | 11.0 | 0.00 | 0.00 | 0.00 | 13 | 918.4 |
| 20260501191544 | 84 | 223 | 3.0 | 11.0 | 0.00 | 0.00 | 0.00 | 13 | 918.5 |
| 20260501191439 | 84 | 257 | 3.0 | 11.0 | 0.00 | 0.00 | 0.00 | 13 | 918.5 |
| 20260501191332 | 84 | 246 | 3.0 | 11.0 | 0.00 | 0.00 | 0.00 | 14 | 918.5 |
| 20260501191231 | 84 | 14 | 3.0 | 11.0 | 0.00 | 0.00 | 0.00 | 14 | 918.5 |
| 20260501191124 | 84 | 246 | 3.0 | 11.0 | 0.00 | 0.00 | 0.00 | 14 | 918.5 |
| 20260501191022 | 84 | 258 | 4.0 | 11.0 | 0.00 | 0.00 | 0.00 | 14 | 918.5 |
| 20260501190657 | 84 | 246 | 3.0 | 11.0 | 0.00 | 0.00 | 0.00 | 14 | 918.5 |
| 20260501190552 | 84 | 306 | 4.0 | 11.0 | 0.00 | 0.00 | 0.00 | 14 | 918.5 |
| 20260501190450 | 84 | 256 | 4.0 | 11.0 | 0.00 | 0.00 | 0.00 | 14 | 918.5 |
| 20260501190343 | 84 | 252 | 4.0 | 11.0 | 0.00 | 0.00 | 0.00 | 14 | 918.6 |
| 20260501190238 | 84 | 261 | 4.0 | 11.0 | 0.00 | 0.00 | 0.00 | 14 | 918.5 |
| 20260501190135 | 84 | 237 | 4.0 | 11.0 | 0.00 | 0.00 | 0.00 | 14 | 918.6 |
| 20260501190028 | 83 | 227 | 3.0 | 11.0 | 0.00 | 0.00 | 0.00 | 14 | 918.6 |
| 20260501185922 | 83 | 219 | 3.0 | 11.0 | 0.00 | 0.00 | 0.00 | 14 | 918.6 |
| 20260501185815 | 83 | 277 | 3.0 | 11.0 | 0.00 | 0.00 | 0.00 | 14 | 918.6 |
| 20260501185713 | 83 | 295 | 3.0 | 11.0 | 0.00 | 0.00 | 0.00 | 14 | 918.6 |
| 20260501185609 | 84 | 279 | 2.0 | 11.0 | 0.00 | 0.00 | 0.00 | 14 | 918.6 |
| 20260501185503 | 84 | 227 | 1.0 | 10.0 | 0.00 | 0.00 | 0.00 | 14 | 918.6 |
| 20260501185358 | 84 | 255 | 1.0 | 8.0 | 0.00 | 0.00 | 0.00 | 13 | 918.6 |
| 20260501184814 | 83 | 226 | 2.0 | 8.0 | 0.00 | 0.00 | 0.00 | 13 | 918.7 |
| 20260501184712 | 83 | 269 | 2.0 | 8.0 | 0.00 | 0.00 | 0.00 | 13 | 918.7 |
| 20260501184344 | 83 | 267 | 2.0 | 8.0 | 0.00 | 0.00 | 0.00 | 14 | 918.8 |
| 20260501184021 | 83 | 265 | 1.0 | 8.0 | 0.00 | 0.00 | 0.00 | 14 | 918.8 |
| 20260501183914 | 83 | 211 | 1.0 | 8.0 | 0.00 | 0.00 | 0.00 | 14 | 918.8 |
| 20260501183549 | 83 | 315 | 3.0 | 8.0 | 0.00 | 0.00 | 0.00 | 14 | 918.8 |
| 20260501183011 | 82 | 257 | 2.0 | 8.0 | 0.00 | 0.00 | 0.00 | 14 | 919.0 |
| 20260501182908 | 82 | 206 | 2.0 | 8.0 | 0.00 | 0.00 | 0.00 | 14 | 919.0 |
| 20260501182802 | 82 | 225 | 2.0 | 8.0 | 0.00 | 0.00 | 0.00 | 14 | 919.0 |
| 20260501182440 | 82 | 324 | 2.0 | 7.0 | 0.00 | 0.00 | 0.00 | 13 | 919.0 |
| 20260501182119 | 82 | 319 | 2.0 | 7.0 | 0.00 | 0.00 | 0.00 | 14 | 919.1 |
| 20260501182013 | 82 | 307 | 2.0 | 7.0 | 0.00 | 0.00 | 0.00 | 14 | 919.2 |
| 20260501181909 | 82 | 246 | 2.0 | 7.0 | 0.00 | 0.00 | 0.00 | 14 | 919.1 |
| 20260501181806 | 82 | 248 | 2.0 | 9.0 | 0.00 | 0.00 | 0.00 | 15 | 919.1 |
| 20260501181701 | 81 | 236 | 2.0 | 9.0 | 0.00 | 0.00 | 0.00 | 14 | 919.1 |
| 20260501181554 | 81 | 250 | 2.0 | 9.0 | 0.00 | 0.00 | 0.00 | 14 | 919.1 |
| 20260501181452 | 81 | 266 | 2.0 | 9.0 | 0.00 | 0.00 | 0.00 | 14 | 919.1 |
| 20260501181345 | 81 | 230 | 2.0 | 9.0 | 0.00 | 0.00 | 0.00 | 14 | 919.1 |
| 20260501181241 | 81 | 201 | 2.0 | 9.0 | 0.00 | 0.00 | 0.00 | 15 | 919.1 |
| 20260501181135 | 81 | 245 | 2.0 | 9.0 | 0.00 | 0.00 | 0.00 | 14 | 919.1 |
| 20260501180809 | 81 | 309 | 3.0 | 9.0 | 0.00 | 0.00 | 0.00 | 14 | 919.1 |
| 20260501180707 | 81 | 328 | 3.0 | 9.0 | 0.00 | 0.00 | 0.00 | 15 | 919.1 |
| 20260501180602 | 81 | 351 | 3.0 | 9.0 | 0.00 | 0.00 | 0.00 | 15 | 919.2 |
| 20260501180459 | 81 | 265 | 3.0 | 9.0 | 0.00 | 0.00 | 0.00 | 15 | 919.1 |
| 20260501180137 | 81 | 289 | 2.0 | 9.0 | 0.00 | 0.00 | 0.00 | 15 | 919.2 |
| 20260501180033 | 81 | 297 | 2.0 | 9.0 | 0.00 | 0.00 | 0.00 | 15 | 919.2 |
| 20260501175929 | 80 | 243 | 2.0 | 9.0 | 0.00 | 0.00 | 0.00 | 15 | 919.2 |
| 20260501175824 | 80 | 226 | 1.0 | 9.0 | 0.00 | 0.00 | 0.00 | 15 | 919.2 |
| 20260501175719 | 80 | 229 | 2.0 | 6.0 | 0.00 | 0.00 | 0.00 | 15 | 919.2 |
| 20260501175613 | 80 | 0 | 2.0 | 6.0 | 0.00 | 0.00 | 0.00 | 15 | 919.2 |
| 20260501175506 | 80 | 244 | 2.0 | 7.0 | 0.00 | 0.00 | 0.00 | 15 | 919.2 |
| 20260501175142 | 80 | 304 | 1.0 | 7.0 | 0.00 | 0.00 | 0.00 | 15 | 919.2 |
| 20260501175037 | 80 | 304 | 2.0 | 7.0 | 0.00 | 0.00 | 0.00 | 15 | 919.2 |
| 20260501174933 | 80 | 291 | 2.0 | 7.0 | 0.00 | 0.00 | 0.00 | 16 | 919.2 |
| 20260501174829 | 80 | 281 | 2.0 | 7.0 | 0.00 | 0.00 | 0.00 | 16 | 919.2 |
| 20260501174726 | 80 | 301 | 2.0 | 7.0 | 0.00 | 0.00 | 0.00 | 15 | 919.2 |
| 20260501174623 | 80 | 258 | 2.0 | 7.0 | 0.00 | 0.00 | 0.00 | 16 | 919.2 |
| 20260501174518 | 80 | 286 | 2.0 | 7.0 | 0.00 | 0.00 | 0.00 | 16 | 919.2 |
| 20260501174154 | 79 | 244 | 2.0 | 7.0 | 0.00 | 0.00 | 0.00 | 16 | 919.2 |
| 20260501173610 | 79 | 242 | 1.0 | 7.0 | 0.00 | 0.00 | 0.00 | 15 | 919.2 |
| 20260501173506 | 79 | 226 | 1.0 | 4.0 | 0.00 | 0.00 | 0.00 | 17 | 919.2 |
| 20260501173403 | 79 | 302 | 1.0 | 3.0 | 0.00 | 0.00 | 0.00 | 16 | 919.3 |
| 20260501173258 | 78 | 337 | 1.0 | 3.0 | 0.00 | 0.00 | 0.00 | 15 | 919.3 |
| 20260501172935 | 78 | 61 | 1.0 | 4.0 | 0.00 | 0.00 | 0.00 | 15 | 919.2 |
| 20260501172352 | 79 | 30 | 1.0 | 4.0 | 0.00 | 0.00 | 0.00 | 15 | 919.2 |
| 20260501172249 | 79 | 5 | 1.0 | 4.0 | 0.00 | 0.00 | 0.00 | 14 | 919.2 |
| 20260501172146 | 79 | 32 | 1.0 | 4.0 | 0.00 | 0.00 | 0.00 | 14 | 919.2 |
| 20260501171823 | 79 | 355 | 1.0 | 4.0 | 0.00 | 0.00 | 0.00 | 14 | 919.2 |
| 20260501171721 | 79 | 332 | 1.0 | 4.0 | 0.00 | 0.00 | 0.00 | 15 | 919.2 |
| 20260501171615 | 79 | 21 | 1.0 | 4.0 | 0.00 | 0.00 | 0.00 | 15 | 919.2 |
| 20260501171513 | 79 | 329 | 1.0 | 4.0 | 0.00 | 0.00 | 0.00 | 15 | 919.2 |
| 20260501171407 | 79 | 308 | 1.0 | 4.0 | 0.00 | 0.00 | 0.00 | 15 | 919.2 |
| 20260501171301 | 79 | 336 | 1.0 | 4.0 | 0.00 | 0.00 | 0.00 | 15 | 919.2 |
| 20260501170937 | 79 | 336 | 0.0 | 4.0 | 0.00 | 0.00 | 0.00 | 16 | 919.2 |
| 20260501170835 | 79 | 279 | 0.0 | 4.0 | 0.00 | 0.00 | 0.00 | 15 | 919.2 |
| 20260501170728 | 79 | 0 | 0.0 | 4.0 | 0.00 | 0.00 | 0.00 | 16 | 919.2 |
| 20260501170627 | 79 | 78 | 0.0 | 4.0 | 0.00 | 0.00 | 0.00 | 15 | 919.2 |
| 20260501170522 | 79 | 78 | 0.0 | 4.0 | 0.00 | 0.00 | 0.00 | 15 | 919.3 |
| 20260501170420 | 79 | 76 | 0.0 | 4.0 | 0.00 | 0.00 | 0.00 | 15 | 919.3 |
| 20260501170312 | 78 | 123 | 0.0 | 4.0 | 0.00 | 0.00 | 0.00 | 15 | 919.2 |
| 20260501170209 | 78 | 126 | 0.0 | 4.0 | 0.00 | 0.00 | 0.00 | 16 | 919.2 |
| 20260501165514 | 78 | 196 | 0.0 | 4.0 | 0.00 | 0.00 | 0.00 | 16 | 919.2 |
| 20260501165408 | 78 | 234 | 0.0 | 4.0 | 0.00 | 0.00 | 0.00 | 16 | 919.2 |
| 20260501165305 | 78 | 243 | 0.0 | 4.0 | 0.00 | 0.00 | 0.00 | 16 | 919.2 |
| 20260501165156 | 77 | 261 | 0.0 | 4.0 | 0.00 | 0.00 | 0.00 | 17 | 919.2 |
| 20260501165048 | 77 | 202 | 0.0 | 0.0 | 0.00 | 0.00 | 0.00 | 17 | 919.2 |
| 20260501164943 | 77 | 202 | 0.0 | 0.0 | 0.00 | 0.00 | 0.00 | 17 | 919.2 |
| 20260501164837 | 77 | 202 | 0.0 | 0.0 | 0.00 | 0.00 | 0.00 | 16 | 919.2 |
| 20260501164730 | 77 | 202 | 0.0 | 0.0 | 0.00 | 0.00 | 0.00 | 16 | 919.2 |
| 20260501164625 | 77 | 202 | 0.0 | 3.0 | 0.00 | 0.00 | 0.00 | 16 | 919.2 |
| 20260501164523 | 77 | 209 | 0.0 | 3.0 | 0.00 | 0.00 | 0.00 | 16 | 919.2 |
| 20260501164420 | 76 | 234 | 0.0 | 1.0 | 0.00 | 0.00 | 0.00 | 16 | 919.2 |
| 20260501164317 | 76 | 219 | 0.0 | 1.0 | 0.00 | 0.00 | 0.00 | 17 | 919.3 |
| 20260501164214 | 76 | 271 | 0.0 | 4.0 | 0.00 | 0.00 | 0.00 | 17 | 919.2 |
| 20260501163848 | 76 | 13 | 0.0 | 4.0 | 0.00 | 0.00 | 0.00 | 17 | 919.2 |
| 20260501163741 | 76 | 13 | 0.0 | 4.0 | 0.00 | 0.00 | 0.00 | 17 | 919.2 |
| 20260501163637 | 76 | 13 | 0.0 | 4.0 | 0.00 | 0.00 | 0.00 | 16 | 919.2 |
| 20260501163535 | 76 | 301 | 0.0 | 4.0 | 0.00 | 0.00 | 0.00 | 17 | 919.2 |
| 20260501163432 | 76 | 275 | 0.0 | 4.0 | 0.00 | 0.00 | 0.00 | 17 | 919.2 |
| 20260501163330 | 76 | 295 | 0.0 | 4.0 | 0.00 | 0.00 | 0.00 | 17 | 919.2 |
| 20260501163223 | 76 | 253 | 1.0 | 4.0 | 0.00 | 0.00 | 0.00 | 18 | 919.2 |
| 20260501163120 | 76 | 281 | 1.0 | 4.0 | 0.00 | 0.00 | 0.00 | 17 | 919.2 |
| 20260501163014 | 76 | 252 | 1.0 | 4.0 | 0.00 | 0.00 | 0.00 | 17 | 919.2 |
| 20260501162912 | 75 | 236 | 1.0 | 4.0 | 0.00 | 0.00 | 0.00 | 16 | 919.2 |
| 20260501162329 | 75 | 236 | 0.0 | 4.0 | 0.00 | 0.00 | 0.00 | 17 | 919.1 |